Time,TemperatureF,DewpointF,PressureIn,WindDirection,WindDirectionDegrees,WindSpeedMPH,WindSpeedGustMPH,Humidity,HourlyPrecipIn,Conditions,Clouds,dailyrainin,SoftwareType,DateUTC
2013-06-17 00:00:00,66.7,60.7,29.14,NNE,22,0.0,0.0,81,0.00,,---,0.00,VWS V13.01,2013-06-17 04:00:00,
2013-06-17 00:01:00,66.7,60.7,29.14,NNE,22,0.0,0.0,81,0.00,,---,0.00,VWS V13.01,2013-06-17 04:01:00,
2013-06-17 00:02:00,66.7,60.7,29.14,NNE,22,0.0,0.0,81,0.00,,---,0.00,VWS V13.01,2013-06-17 04:02:00,
2013-06-17 00:07:00,66.7,60.7,29.14,NNE,22,0.0,0.0,81,0.00,,---,0.00,VWS V13.01,2013-06-17 04:07:00,
2013-06-17 00:08:00,66.7,60.7,29.14,NNE,22,0.0,0.0,81,0.00,,---,0.00,VWS V13.01,2013-06-17 04:08:00,
2013-06-17 00:09:00,66.7,60.7,29.14,NNE,22,0.0,0.0,81,0.00,,---,0.00,VWS V13.01,2013-06-17 04:09:00,
2013-06-17 00:12:00,66.7,60.7,29.14,NNE,22,0.0,0.0,81,0.00,,---,0.00,VWS V13.01,2013-06-17 04:12:00,
2013-06-17 00:13:00,66.7,60.7,29.14,NNE,22,0.0,0.0,81,0.00,,---,0.00,VWS V13.01,2013-06-17 04:13:00,
2013-06-17 00:15:00,66.7,60.7,29.14,NNE,22,0.0,0.0,81,0.00,,---,0.00,VWS V13.01,2013-06-17 04:15:00,
2013-06-17 00:18:00,66.7,60.7,29.14,NNE,22,0.0,0.0,81,0.00,,---,0.00,VWS V13.01,2013-06-17 04:18:00,
2013-06-17 00:19:00,66.2,60.2,29.14,NNE,22,0.0,0.0,81,0.00,,---,0.00,VWS V13.01,2013-06-17 04:19:00,
2013-06-17 00:20:00,66.2,60.2,29.14,NNE,22,0.0,0.0,81,0.00,,---,0.00,VWS V13.01,2013-06-17 04:20:00,
2013-06-17 00:23:00,66.0,60.4,29.14,NNE,22,0.0,0.0,82,0.00,,---,0.00,VWS V13.01,2013-06-17 04:23:00,
2013-06-17 00:24:00,66.0,60.4,29.14,NNE,22,0.0,0.0,82,0.00,,---,0.00,VWS V13.01,2013-06-17 04:24:00,
2013-06-17 00:25:00,66.0,60.4,29.14,NNE,22,0.0,0.0,82,0.00,,---,0.00,VWS V13.01,2013-06-17 04:25:00,
2013-06-17 00:26:00,66.0,60.4,29.14,NNE,22,0.0,0.0,82,0.00,,---,0.00,VWS V13.01,2013-06-17 04:26:00,
2013-06-17 00:29:00,66.0,60.4,29.14,NNE,22,0.0,0.0,82,0.00,,---,0.00,VWS V13.01,2013-06-17 04:29:00,
2013-06-17 00:30:00,66.0,60.4,29.14,NNE,22,0.0,0.0,82,0.00,,---,0.00,VWS V13.01,2013-06-17 04:30:00,
2013-06-17 00:31:00,66.0,60.4,29.14,NNE,22,0.0,0.0,82,0.00,,---,0.00,VWS V13.01,2013-06-17 04:31:00,
2013-06-17 00:34:00,66.0,60.4,29.14,NNE,22,0.0,0.0,82,0.00,,---,0.00,VWS V13.01,2013-06-17 04:34:00,
2013-06-17 00:35:00,65.8,60.2,29.14,NNE,22,0.0,0.0,82,0.00,,---,0.00,VWS V13.01,2013-06-17 04:35:00,
2013-06-17 00:36:00,65.8,60.2,29.14,NNE,22,0.0,0.0,82,0.00,,---,0.00,VWS V13.01,2013-06-17 04:36:00,
2013-06-17 00:37:00,65.8,60.2,29.14,NNE,22,0.0,0.0,82,0.00,,---,0.00,VWS V13.01,2013-06-17 04:37:00,
2013-06-17 00:38:00,65.8,60.2,29.14,NNE,22,0.0,0.0,82,0.00,,---,0.00,VWS V13.01,2013-06-17 04:38:00,
2013-06-17 00:40:00,65.8,60.2,29.14,NNE,22,0.0,0.0,82,0.00,,---,0.00,VWS V13.01,2013-06-17 04:40:00,
2013-06-17 00:43:00,65.8,60.2,29.14,NNE,22,0.0,0.0,82,0.00,,---,0.00,VWS V13.01,2013-06-17 04:43:00,
2013-06-17 00:45:00,65.8,60.2,29.14,NNE,22,0.0,0.0,82,0.00,,---,0.00,VWS V13.01,2013-06-17 04:45:00,
2013-06-17 00:47:00,65.8,60.2,29.14,NNE,22,0.0,0.0,82,0.00,,---,0.00,VWS V13.01,2013-06-17 04:47:00,
2013-06-17 00:48:00,65.8,60.2,29.14,NNE,22,0.0,0.0,82,0.00,,---,0.00,VWS V13.01,2013-06-17 04:48:00,
2013-06-17 00:51:00,65.5,59.8,29.14,NNE,22,0.0,0.0,82,0.00,,---,0.00,VWS V13.01,2013-06-17 04:51:00,
2013-06-17 00:52:00,65.5,59.8,29.14,NNE,22,0.0,0.0,82,0.00,,---,0.00,VWS V13.01,2013-06-17 04:52:00,
2013-06-17 00:53:00,65.5,59.8,29.14,NNE,22,0.0,0.0,82,0.00,,---,0.00,VWS V13.01,2013-06-17 04:53:00,
2013-06-17 00:54:00,65.5,59.8,29.14,NNE,22,0.0,0.0,82,0.00,,---,0.00,VWS V13.01,2013-06-17 04:54:00,
2013-06-17 00:55:00,65.5,59.8,29.14,NNE,22,0.0,0.0,82,0.00,,---,0.00,VWS V13.01,2013-06-17 04:55:00,
2013-06-17 00:56:00,65.5,59.8,29.14,NNE,22,0.0,0.0,82,0.00,,---,0.00,VWS V13.01,2013-06-17 04:56:00,
2013-06-17 00:57:00,65.5,59.8,29.14,NNE,22,0.0,0.0,82,0.00,,---,0.00,VWS V13.01,2013-06-17 04:57:00,
2013-06-17 00:59:00,65.5,59.8,29.14,NNE,22,0.0,0.0,82,0.00,,---,0.00,VWS V13.01,2013-06-17 04:59:00,
2013-06-17 01:00:00,65.3,59.7,29.14,NNE,22,0.0,0.0,82,0.00,,---,0.00,VWS V13.01,2013-06-17 05:00:00,
2013-06-17 01:01:00,65.3,59.7,29.14,NNE,22,0.0,0.0,82,0.00,,---,0.00,VWS V13.01,2013-06-17 05:01:00,
2013-06-17 01:03:00,65.3,59.7,29.14,NNE,22,0.0,0.0,82,0.00,,---,0.00,VWS V13.01,2013-06-17 05:03:00,
2013-06-17 01:04:00,65.3,59.7,29.14,NNE,22,0.0,0.0,82,0.00,,---,0.00,VWS V13.01,2013-06-17 05:04:00,
2013-06-17 01:06:00,65.3,59.7,29.14,NNE,22,0.0,0.0,82,0.00,,---,0.00,VWS V13.01,2013-06-17 05:06:00,
2013-06-17 01:07:00,65.3,59.7,29.14,NNE,22,0.0,0.0,82,0.00,,---,0.00,VWS V13.01,2013-06-17 05:07:00,
2013-06-17 01:09:00,65.3,59.7,29.14,NNE,22,0.0,0.0,82,0.00,,---,0.00,VWS V13.01,2013-06-17 05:09:00,
2013-06-17 01:11:00,65.3,59.7,29.14,NNE,22,0.0,0.0,82,0.00,,---,0.00,VWS V13.01,2013-06-17 05:11:00,
2013-06-17 01:12:00,64.9,59.7,29.14,NNE,22,0.0,0.0,83,0.00,,---,0.00,VWS V13.01,2013-06-17 05:12:00,
2013-06-17 01:13:00,64.9,59.7,29.14,NNE,22,0.0,0.0,83,0.00,,---,0.00,VWS V13.01,2013-06-17 05:13:00,
2013-06-17 01:15:00,64.9,59.7,29.14,NNE,22,0.0,0.0,83,0.00,,---,0.00,VWS V13.01,2013-06-17 05:15:00,
2013-06-17 01:17:00,64.8,59.5,29.14,NNE,22,0.0,0.0,83,0.00,,---,0.00,VWS V13.01,2013-06-17 05:17:00,
2013-06-17 01:19:00,64.8,59.5,29.14,NNE,22,0.0,0.0,83,0.00,,---,0.00,VWS V13.01,2013-06-17 05:19:00,
2013-06-17 01:20:00,64.8,59.5,29.14,NNE,22,0.0,0.0,83,0.00,,---,0.00,VWS V13.01,2013-06-17 05:20:00,
2013-06-17 01:21:00,64.8,59.5,29.14,NNE,22,0.0,0.0,83,0.00,,---,0.00,VWS V13.01,2013-06-17 05:21:00,
2013-06-17 01:22:00,64.8,59.5,29.14,NNE,22,0.0,0.0,83,0.00,,---,0.00,VWS V13.01,2013-06-17 05:22:00,
2013-06-17 01:25:00,64.8,59.5,29.14,WSW,248,0.0,0.0,83,0.00,,---,0.00,VWS V13.01,2013-06-17 05:25:00,
2013-06-17 01:26:00,64.8,59.5,29.14,WSW,248,0.0,0.0,83,0.00,,---,0.00,VWS V13.01,2013-06-17 05:26:00,
2013-06-17 01:27:00,64.8,59.5,29.14,SW,225,0.0,0.0,83,0.00,,---,0.00,VWS V13.01,2013-06-17 05:27:00,
2013-06-17 01:29:00,64.8,59.5,29.14,SW,225,0.0,0.0,83,0.00,,---,0.00,VWS V13.01,2013-06-17 05:29:00,
2013-06-17 01:31:00,64.8,59.5,29.14,SW,225,0.0,0.0,83,0.00,,---,0.00,VWS V13.01,2013-06-17 05:31:00,
2013-06-17 01:34:00,64.8,59.5,29.14,SW,225,0.0,0.0,83,0.00,,---,0.00,VWS V13.01,2013-06-17 05:34:00,
2013-06-17 01:35:00,64.8,59.5,29.14,SW,225,0.0,0.0,83,0.00,,---,0.00,VWS V13.01,2013-06-17 05:35:00,
2013-06-17 01:36:00,64.8,59.5,29.14,West,270,0.0,0.0,83,0.00,,---,0.00,VWS V13.01,2013-06-17 05:36:00,
2013-06-17 01:37:00,63.9,59.3,29.14,SW,225,0.0,0.0,85,0.00,,---,0.00,VWS V13.01,2013-06-17 05:37:00,
2013-06-17 01:39:00,63.9,58.9,29.14,SSE,158,0.0,0.0,84,0.00,,---,0.00,VWS V13.01,2013-06-17 05:39:00,
2013-06-17 01:42:00,63.9,58.9,29.14,SSE,158,0.0,0.0,84,0.00,,---,0.00,VWS V13.01,2013-06-17 05:42:00,
2013-06-17 01:43:00,63.7,59.1,29.14,SSE,158,0.0,0.0,85,0.00,,---,0.00,VWS V13.01,2013-06-17 05:43:00,
2013-06-17 01:46:00,63.7,59.1,29.14,SSE,158,0.0,0.0,85,0.00,,---,0.00,VWS V13.01,2013-06-17 05:46:00,
2013-06-17 01:47:00,63.7,59.1,29.14,SSE,158,0.0,0.0,85,0.00,,---,0.00,VWS V13.01,2013-06-17 05:47:00,
2013-06-17 01:48:00,63.7,59.1,29.14,SSE,158,0.0,0.0,85,0.00,,---,0.00,VWS V13.01,2013-06-17 05:48:00,
2013-06-17 01:49:00,63.7,59.1,29.14,SSE,158,0.0,0.0,85,0.00,,---,0.00,VWS V13.01,2013-06-17 05:49:00,
2013-06-17 01:51:00,63.7,59.1,29.14,SSW,202,0.0,0.0,85,0.00,,---,0.00,VWS V13.01,2013-06-17 05:51:00,
2013-06-17 01:53:00,63.7,59.1,29.14,SSW,202,0.0,0.0,85,0.00,,---,0.00,VWS V13.01,2013-06-17 05:53:00,
2013-06-17 01:54:00,63.7,59.1,29.14,SSE,158,0.0,0.0,85,0.00,,---,0.00,VWS V13.01,2013-06-17 05:54:00,
2013-06-17 01:55:00,63.7,59.1,29.14,SSW,202,0.0,0.0,85,0.00,,---,0.00,VWS V13.01,2013-06-17 05:55:00,
2013-06-17 01:57:00,63.7,59.1,29.14,SW,225,0.0,0.0,85,0.00,,---,0.00,VWS V13.01,2013-06-17 05:57:00,
2013-06-17 01:59:00,63.7,59.1,29.14,SW,225,0.0,0.0,85,0.00,,---,0.00,VWS V13.01,2013-06-17 05:59:00,
2013-06-17 02:00:00,63.7,59.1,29.14,SW,225,0.0,0.0,85,0.00,,---,0.00,VWS V13.01,2013-06-17 06:00:00,
2013-06-17 02:01:00,63.7,59.1,29.14,SW,225,0.0,0.0,85,0.00,,---,0.00,VWS V13.01,2013-06-17 06:01:00,
2013-06-17 02:04:00,63.7,59.1,29.14,SW,225,0.0,0.0,85,0.00,,---,0.00,VWS V13.01,2013-06-17 06:04:00,
2013-06-17 02:05:00,63.7,59.1,29.14,SW,225,0.0,0.0,85,0.00,,---,0.00,VWS V13.01,2013-06-17 06:05:00,
2013-06-17 02:07:00,63.0,58.7,29.14,SW,225,0.0,0.0,86,0.00,,---,0.00,VWS V13.01,2013-06-17 06:07:00,
2013-06-17 02:09:00,63.0,58.7,29.14,SW,225,0.0,0.0,86,0.00,,---,0.00,VWS V13.01,2013-06-17 06:09:00,
2013-06-17 02:10:00,63.0,58.7,29.14,SW,225,0.0,0.0,86,0.00,,---,0.00,VWS V13.01,2013-06-17 06:10:00,
2013-06-17 02:11:00,63.0,58.7,29.14,SW,225,0.0,0.0,86,0.00,,---,0.00,VWS V13.01,2013-06-17 06:11:00,
2013-06-17 02:13:00,63.0,58.7,29.14,SW,225,0.0,0.0,86,0.00,,---,0.00,VWS V13.01,2013-06-17 06:13:00,
2013-06-17 02:14:00,62.6,58.4,29.14,SW,225,0.0,0.0,86,0.00,,---,0.00,VWS V13.01,2013-06-17 06:14:00,
2013-06-17 02:16:00,62.6,58.4,29.14,SW,225,0.0,0.0,86,0.00,,---,0.00,VWS V13.01,2013-06-17 06:16:00,
2013-06-17 02:18:00,62.6,58.4,29.14,SW,225,0.0,0.0,86,0.00,,---,0.00,VWS V13.01,2013-06-17 06:18:00,
2013-06-17 02:20:00,62.6,58.4,29.14,SW,225,0.0,0.0,86,0.00,,---,0.00,VWS V13.01,2013-06-17 06:20:00,
2013-06-17 02:21:00,62.6,58.4,29.14,SW,225,0.0,0.0,86,0.00,,---,0.00,VWS V13.01,2013-06-17 06:21:00,
2013-06-17 02:23:00,62.6,58.4,29.14,SW,225,0.0,0.0,86,0.00,,---,0.00,VWS V13.01,2013-06-17 06:23:00,
2013-06-17 02:24:00,62.6,58.4,29.14,SW,225,0.0,0.0,86,0.00,,---,0.00,VWS V13.01,2013-06-17 06:24:00,
2013-06-17 02:26:00,62.6,58.4,29.14,SW,225,0.0,0.0,86,0.00,,---,0.00,VWS V13.01,2013-06-17 06:26:00,
2013-06-17 02:27:00,62.6,58.4,29.14,SW,225,0.0,0.0,86,0.00,,---,0.00,VWS V13.01,2013-06-17 06:27:00,
2013-06-17 02:28:00,62.6,58.4,29.14,SW,225,0.0,0.0,86,0.00,,---,0.00,VWS V13.01,2013-06-17 06:28:00,
2013-06-17 02:30:00,62.6,58.4,29.14,SW,225,0.0,0.0,86,0.00,,---,0.00,VWS V13.01,2013-06-17 06:30:00,
2013-06-17 02:31:00,62.2,58.3,29.14,SW,225,0.0,0.0,87,0.00,,---,0.00,VWS V13.01,2013-06-17 06:31:00,
2013-06-17 02:32:00,62.2,58.3,29.14,SW,225,0.0,0.0,87,0.00,,---,0.00,VWS V13.01,2013-06-17 06:32:00,
2013-06-17 02:34:00,62.2,58.3,29.14,SW,225,0.0,0.0,87,0.00,,---,0.00,VWS V13.01,2013-06-17 06:34:00,
2013-06-17 02:36:00,62.1,58.2,29.14,SW,225,0.0,0.0,87,0.00,,---,0.00,VWS V13.01,2013-06-17 06:36:00,
2013-06-17 02:39:00,62.1,58.2,29.14,SSE,158,0.0,0.0,87,0.00,,---,0.00,VWS V13.01,2013-06-17 06:39:00,
2013-06-17 02:40:00,62.1,58.2,29.14,SSE,158,0.0,0.0,87,0.00,,---,0.00,VWS V13.01,2013-06-17 06:40:00,
2013-06-17 02:41:00,62.1,58.2,29.14,SSE,158,0.0,0.0,87,0.00,,---,0.00,VWS V13.01,2013-06-17 06:41:00,
2013-06-17 02:44:00,62.1,58.2,29.14,SSE,158,0.0,0.0,87,0.00,,---,0.00,VWS V13.01,2013-06-17 06:44:00,
2013-06-17 02:45:00,62.1,58.2,29.14,SSE,158,0.0,0.0,87,0.00,,---,0.00,VWS V13.01,2013-06-17 06:45:00,
2013-06-17 02:46:00,62.1,58.2,29.14,SSW,202,0.0,0.0,87,0.00,,---,0.00,VWS V13.01,2013-06-17 06:46:00,
2013-06-17 02:47:00,62.1,58.2,29.14,SSW,202,0.0,0.0,87,0.00,,---,0.00,VWS V13.01,2013-06-17 06:47:00,
2013-06-17 02:49:00,62.1,58.2,29.14,SSW,202,0.0,0.0,87,0.00,,---,0.00,VWS V13.01,2013-06-17 06:49:00,
2013-06-17 02:51:00,62.1,58.2,29.17,SSW,202,0.0,0.0,87,0.00,,---,0.00,VWS V13.01,2013-06-17 06:51:00,
2013-06-17 02:52:00,62.1,58.2,29.17,SSW,202,0.0,0.0,87,0.00,,---,0.00,VWS V13.01,2013-06-17 06:52:00,
2013-06-17 02:56:00,62.1,58.2,29.17,SSE,158,0.0,0.0,87,0.00,,---,0.00,VWS V13.01,2013-06-17 06:56:00,
2013-06-17 02:57:00,62.1,58.2,29.17,SSE,158,0.0,0.0,87,0.00,,---,0.00,VWS V13.01,2013-06-17 06:57:00,
2013-06-17 02:58:00,62.1,58.2,29.17,SSE,158,0.0,0.0,87,0.00,,---,0.00,VWS V13.01,2013-06-17 06:58:00,
2013-06-17 03:02:00,61.7,58.1,29.17,SSE,158,0.0,0.0,88,0.00,,---,0.00,VWS V13.01,2013-06-17 07:02:00,
2013-06-17 03:03:00,61.7,58.1,29.17,SSW,202,0.0,0.0,88,0.00,,---,0.00,VWS V13.01,2013-06-17 07:03:00,
2013-06-17 03:04:00,61.7,58.1,29.17,SSW,202,0.0,0.0,88,0.00,,---,0.00,VWS V13.01,2013-06-17 07:04:00,
2013-06-17 03:05:00,61.7,58.1,29.17,SSW,202,0.0,0.0,88,0.00,,---,0.00,VWS V13.01,2013-06-17 07:05:00,
2013-06-17 03:09:00,61.7,58.1,29.17,SSW,202,0.0,0.0,88,0.00,,---,0.00,VWS V13.01,2013-06-17 07:09:00,
2013-06-17 03:10:00,61.7,58.1,29.17,SSW,202,0.0,0.0,88,0.00,,---,0.00,VWS V13.01,2013-06-17 07:10:00,
2013-06-17 03:11:00,61.7,58.1,29.17,SSW,202,0.0,0.0,88,0.00,,---,0.00,VWS V13.01,2013-06-17 07:11:00,
2013-06-17 03:14:00,61.7,58.1,29.17,SSW,202,0.0,0.0,88,0.00,,---,0.00,VWS V13.01,2013-06-17 07:14:00,
2013-06-17 03:15:00,61.7,58.1,29.17,SSW,202,0.0,0.0,88,0.00,,---,0.00,VWS V13.01,2013-06-17 07:15:00,
2013-06-17 03:16:00,61.7,58.1,29.17,SSW,202,0.0,0.0,88,0.00,,---,0.00,VWS V13.01,2013-06-17 07:16:00,
2013-06-17 03:19:00,61.7,58.1,29.17,SSW,202,0.0,0.0,88,0.00,,---,0.00,VWS V13.01,2013-06-17 07:19:00,
2013-06-17 03:20:00,61.7,58.1,29.17,SSW,202,0.0,0.0,88,0.00,,---,0.00,VWS V13.01,2013-06-17 07:20:00,
2013-06-17 03:22:00,61.7,58.1,29.17,SSW,202,0.0,0.0,88,0.00,,---,0.00,VWS V13.01,2013-06-17 07:22:00,
2013-06-17 03:24:00,61.3,58.1,29.17,SSW,202,0.0,0.0,89,0.00,,---,0.00,VWS V13.01,2013-06-17 07:24:00,
2013-06-17 03:25:00,61.3,58.1,29.17,SSW,202,0.0,0.0,89,0.00,,---,0.00,VWS V13.01,2013-06-17 07:25:00,
2013-06-17 03:27:00,61.3,58.1,29.17,SSW,202,0.0,0.0,89,0.00,,---,0.00,VWS V13.01,2013-06-17 07:27:00,
2013-06-17 03:28:00,61.3,58.1,29.17,SSW,202,0.0,0.0,89,0.00,,---,0.00,VWS V13.01,2013-06-17 07:28:00,
2013-06-17 03:30:00,61.3,58.1,29.17,SSW,202,0.0,0.0,89,0.00,,---,0.00,VWS V13.01,2013-06-17 07:30:00,
2013-06-17 03:31:00,61.3,58.1,29.17,SSW,202,0.0,0.0,89,0.00,,---,0.00,VWS V13.01,2013-06-17 07:31:00,
2013-06-17 03:32:00,61.0,57.4,29.17,SSW,202,0.0,0.0,88,0.00,,---,0.00,VWS V13.01,2013-06-17 07:32:00,
2013-06-17 03:33:00,61.0,57.4,29.17,SSW,202,0.0,0.0,88,0.00,,---,0.00,VWS V13.01,2013-06-17 07:33:00,
2013-06-17 03:36:00,61.0,57.4,29.17,SSW,202,0.0,0.0,88,0.00,,---,0.00,VWS V13.01,2013-06-17 07:36:00,
2013-06-17 03:38:00,61.0,57.4,29.17,SSW,202,0.0,0.0,88,0.00,,---,0.00,VWS V13.01,2013-06-17 07:38:00,
2013-06-17 03:40:00,61.0,57.4,29.17,SSW,202,0.0,0.0,88,0.00,,---,0.00,VWS V13.01,2013-06-17 07:40:00,
2013-06-17 03:42:00,61.0,57.4,29.17,SSW,202,0.0,0.0,88,0.00,,---,0.00,VWS V13.01,2013-06-17 07:42:00,
2013-06-17 03:43:00,61.0,57.4,29.17,SSW,202,0.0,0.0,88,0.00,,---,0.00,VWS V13.01,2013-06-17 07:43:00,
2013-06-17 03:44:00,61.0,57.4,29.17,SSW,202,0.0,0.0,88,0.00,,---,0.00,VWS V13.01,2013-06-17 07:44:00,
2013-06-17 03:45:00,61.0,57.4,29.17,SSW,202,0.0,0.0,88,0.00,,---,0.00,VWS V13.01,2013-06-17 07:45:00,
2013-06-17 03:48:00,60.6,57.4,29.17,SSW,202,0.0,0.0,89,0.00,,---,0.00,VWS V13.01,2013-06-17 07:48:00,
2013-06-17 03:49:00,60.6,57.4,29.17,SSW,202,0.0,0.0,89,0.00,,---,0.00,VWS V13.01,2013-06-17 07:49:00,
2013-06-17 03:50:00,60.6,57.4,29.17,SSW,202,0.0,0.0,89,0.00,,---,0.00,VWS V13.01,2013-06-17 07:50:00,
2013-06-17 03:54:00,60.6,57.4,29.17,SSW,202,0.0,0.0,89,0.00,,---,0.00,VWS V13.01,2013-06-17 07:54:00,
2013-06-17 03:55:00,60.6,57.4,29.17,SSW,202,0.0,0.0,89,0.00,,---,0.00,VWS V13.01,2013-06-17 07:55:00,
2013-06-17 03:56:00,60.6,57.4,29.17,SSW,202,0.0,0.0,89,0.00,,---,0.00,VWS V13.01,2013-06-17 07:56:00,
2013-06-17 03:59:00,60.4,57.2,29.17,SSW,202,0.0,0.0,89,0.00,,---,0.00,VWS V13.01,2013-06-17 07:59:00,
2013-06-17 04:00:00,60.4,57.2,29.17,SSW,202,0.0,0.0,89,0.00,,---,0.00,VWS V13.01,2013-06-17 08:00:00,
2013-06-17 04:01:00,60.4,57.2,29.17,SSW,202,0.0,0.0,89,0.00,,---,0.00,VWS V13.01,2013-06-17 08:01:00,
2013-06-17 04:02:00,60.4,57.2,29.17,SSW,202,0.0,0.0,89,0.00,,---,0.00,VWS V13.01,2013-06-17 08:02:00,
2013-06-17 04:06:00,60.4,57.2,29.17,SSW,202,0.0,0.0,89,0.00,,---,0.00,VWS V13.01,2013-06-17 08:06:00,
2013-06-17 04:07:00,60.4,57.2,29.17,SSW,202,0.0,0.0,89,0.00,,---,0.00,VWS V13.01,2013-06-17 08:07:00,
2013-06-17 04:09:00,60.4,57.2,29.17,SSW,202,0.0,0.0,89,0.00,,---,0.00,VWS V13.01,2013-06-17 08:09:00,
2013-06-17 04:11:00,60.4,57.2,29.14,SSW,202,0.0,0.0,89,0.00,,---,0.00,VWS V13.01,2013-06-17 08:11:00,
2013-06-17 04:12:00,60.4,57.2,29.14,SSW,202,0.0,0.0,89,0.00,,---,0.00,VWS V13.01,2013-06-17 08:12:00,
2013-06-17 04:13:00,60.4,57.2,29.14,SSW,202,0.0,0.0,89,0.00,,---,0.00,VWS V13.01,2013-06-17 08:13:00,
2013-06-17 04:14:00,60.3,57.0,29.14,SSW,202,0.0,0.0,89,0.00,,---,0.00,VWS V13.01,2013-06-17 08:14:00,
2013-06-17 04:17:00,60.3,57.0,29.14,SSW,202,0.0,0.0,89,0.00,,---,0.00,VWS V13.01,2013-06-17 08:17:00,
2013-06-17 04:18:00,60.1,56.8,29.14,SSW,202,0.0,0.0,89,0.00,,---,0.00,VWS V13.01,2013-06-17 08:18:00,
2013-06-17 04:19:00,60.1,56.8,29.14,SSW,202,0.0,0.0,89,0.00,,---,0.00,VWS V13.01,2013-06-17 08:19:00,
2013-06-17 04:23:00,60.1,56.8,29.14,SSW,202,0.0,0.0,89,0.00,,---,0.00,VWS V13.01,2013-06-17 08:23:00,
2013-06-17 04:24:00,60.1,56.8,29.14,SSW,202,0.0,0.0,89,0.00,,---,0.00,VWS V13.01,2013-06-17 08:24:00,
2013-06-17 04:25:00,60.1,56.8,29.14,SSW,202,0.0,0.0,89,0.00,,---,0.00,VWS V13.01,2013-06-17 08:25:00,
2013-06-17 04:29:00,59.9,56.7,29.14,SSW,202,0.0,0.0,89,0.00,,---,0.00,VWS V13.01,2013-06-17 08:29:00,
2013-06-17 04:30:00,59.9,56.7,29.14,SSW,202,0.0,0.0,89,0.00,,---,0.00,VWS V13.01,2013-06-17 08:30:00,
2013-06-17 04:32:00,59.9,56.7,29.14,SSW,202,0.0,0.0,89,0.00,,---,0.00,VWS V13.01,2013-06-17 08:32:00,
2013-06-17 04:34:00,59.9,56.7,29.14,SSW,202,0.0,0.0,89,0.00,,---,0.00,VWS V13.01,2013-06-17 08:34:00,
2013-06-17 04:35:00,59.9,56.7,29.14,SSW,202,0.0,0.0,89,0.00,,---,0.00,VWS V13.01,2013-06-17 08:35:00,
2013-06-17 04:36:00,59.9,56.7,29.14,SSW,202,0.0,0.0,89,0.00,,---,0.00,VWS V13.01,2013-06-17 08:36:00,
2013-06-17 04:37:00,59.9,56.7,29.14,SSW,202,0.0,0.0,89,0.00,,---,0.00,VWS V13.01,2013-06-17 08:37:00,
2013-06-17 04:40:00,59.9,56.7,29.14,SSW,202,0.0,0.0,89,0.00,,---,0.00,VWS V13.01,2013-06-17 08:40:00,
2013-06-17 04:42:00,59.9,56.7,29.14,SSW,202,0.0,0.0,89,0.00,,---,0.00,VWS V13.01,2013-06-17 08:42:00,
2013-06-17 04:43:00,59.9,56.7,29.14,SSW,202,0.0,0.0,89,0.00,,---,0.00,VWS V13.01,2013-06-17 08:43:00,
2013-06-17 04:45:00,59.7,56.8,29.14,SSW,202,0.0,0.0,90,0.00,,---,0.00,VWS V13.01,2013-06-17 08:45:00,
2013-06-17 04:46:00,59.7,56.8,29.14,SSW,202,0.0,0.0,90,0.00,,---,0.00,VWS V13.01,2013-06-17 08:46:00,
2013-06-17 04:47:00,59.9,57.0,29.14,SSW,202,0.0,0.0,90,0.00,,---,0.00,VWS V13.01,2013-06-17 08:47:00,
2013-06-17 04:48:00,59.9,57.0,29.14,SSW,202,0.0,0.0,90,0.00,,---,0.00,VWS V13.01,2013-06-17 08:48:00,
2013-06-17 04:49:00,59.9,57.0,29.14,SSW,202,0.0,0.0,90,0.00,,---,0.00,VWS V13.01,2013-06-17 08:49:00,
2013-06-17 04:50:00,59.9,57.0,29.14,SSW,202,0.0,0.0,90,0.00,,---,0.00,VWS V13.01,2013-06-17 08:50:00,
2013-06-17 04:52:00,59.9,57.0,29.14,SSW,202,0.0,0.0,90,0.00,,---,0.00,VWS V13.01,2013-06-17 08:52:00,
2013-06-17 04:53:00,59.9,57.0,29.14,SSW,202,0.0,0.0,90,0.00,,---,0.00,VWS V13.01,2013-06-17 08:53:00,
2013-06-17 04:55:00,59.9,57.0,29.14,SSW,202,0.0,0.0,90,0.00,,---,0.00,VWS V13.01,2013-06-17 08:55:00,
2013-06-17 04:56:00,59.9,57.0,29.14,SSW,202,0.0,0.0,90,0.00,,---,0.00,VWS V13.01,2013-06-17 08:56:00,
2013-06-17 04:58:00,59.9,57.0,29.14,SSW,202,0.0,0.0,90,0.00,,---,0.00,VWS V13.01,2013-06-17 08:58:00,
2013-06-17 05:00:00,59.9,57.0,29.14,SSW,202,0.0,0.0,90,0.00,,---,0.00,VWS V13.01,2013-06-17 09:00:00,
2013-06-17 05:01:00,59.9,57.0,29.14,SSW,202,0.0,0.0,90,0.00,,---,0.00,VWS V13.01,2013-06-17 09:01:00,
2013-06-17 05:02:00,59.9,57.0,29.14,SSW,202,0.0,0.0,90,0.00,,---,0.00,VWS V13.01,2013-06-17 09:02:00,
2013-06-17 05:03:00,59.9,57.0,29.14,SSW,202,0.0,0.0,90,0.00,,---,0.00,VWS V13.01,2013-06-17 09:03:00,
2013-06-17 05:04:00,59.9,57.0,29.14,SSW,202,0.0,0.0,90,0.00,,---,0.00,VWS V13.01,2013-06-17 09:04:00,
2013-06-17 05:05:00,59.9,57.0,29.17,SSW,202,0.0,0.0,90,0.00,,---,0.00,VWS V13.01,2013-06-17 09:05:00,
2013-06-17 05:06:00,59.9,57.0,29.17,SSW,202,0.0,0.0,90,0.00,,---,0.00,VWS V13.01,2013-06-17 09:06:00,
2013-06-17 05:08:00,60.1,57.5,29.17,SSW,202,0.0,0.0,91,0.00,,---,0.00,VWS V13.01,2013-06-17 09:08:00,
2013-06-17 05:09:00,60.1,57.5,29.17,SSW,202,0.0,0.0,91,0.00,,---,0.00,VWS V13.01,2013-06-17 09:09:00,
2013-06-17 05:10:00,60.1,57.5,29.17,SSW,202,0.0,0.0,91,0.00,,---,0.00,VWS V13.01,2013-06-17 09:10:00,
2013-06-17 05:12:00,60.1,57.5,29.17,SSW,202,0.0,0.0,91,0.00,,---,0.00,VWS V13.01,2013-06-17 09:12:00,
2013-06-17 05:13:00,60.1,57.5,29.17,SSW,202,0.0,0.0,91,0.00,,---,0.00,VWS V13.01,2013-06-17 09:13:00,
2013-06-17 05:14:00,60.1,57.1,29.17,SSW,202,0.0,0.0,90,0.00,,---,0.00,VWS V13.01,2013-06-17 09:14:00,
2013-06-17 05:15:00,60.1,57.1,29.17,SSW,202,0.0,0.0,90,0.00,,---,0.00,VWS V13.01,2013-06-17 09:15:00,
2013-06-17 05:17:00,60.1,57.1,29.17,SSW,202,0.0,0.0,90,0.00,,---,0.00,VWS V13.01,2013-06-17 09:17:00,
2013-06-17 05:19:00,60.1,57.1,29.17,SSW,202,0.0,0.0,90,0.00,,---,0.00,VWS V13.01,2013-06-17 09:19:00,
2013-06-17 05:20:00,60.1,57.1,29.17,SSW,202,0.0,0.0,90,0.00,,---,0.00,VWS V13.01,2013-06-17 09:20:00,
2013-06-17 05:21:00,60.1,57.1,29.17,SSW,202,0.0,0.0,90,0.00,,---,0.00,VWS V13.01,2013-06-17 09:21:00,
2013-06-17 05:24:00,60.1,57.1,29.17,SE,135,0.0,0.0,90,0.00,,---,0.00,VWS V13.01,2013-06-17 09:24:00,
2013-06-17 05:25:00,60.1,57.1,29.17,SE,135,0.0,0.0,90,0.00,,---,0.00,VWS V13.01,2013-06-17 09:25:00,
2013-06-17 05:26:00,60.1,57.1,29.17,SW,225,0.0,0.0,90,0.00,,---,0.00,VWS V13.01,2013-06-17 09:26:00,
2013-06-17 05:29:00,60.1,57.1,29.17,SW,225,0.0,0.0,90,0.00,,---,0.00,VWS V13.01,2013-06-17 09:29:00,
2013-06-17 05:30:00,60.1,57.1,29.17,SW,225,0.0,0.0,90,0.00,,---,0.00,VWS V13.01,2013-06-17 09:30:00,
2013-06-17 05:32:00,60.1,57.1,29.17,SW,225,0.0,0.0,90,0.00,,---,0.00,VWS V13.01,2013-06-17 09:32:00,
2013-06-17 05:33:00,60.1,57.1,29.17,SW,225,0.0,0.0,90,0.00,,---,0.00,VWS V13.01,2013-06-17 09:33:00,
2013-06-17 05:34:00,60.1,57.1,29.17,SW,225,0.0,0.0,90,0.00,,---,0.00,VWS V13.01,2013-06-17 09:34:00,
2013-06-17 05:35:00,60.1,57.1,29.17,SW,225,0.0,0.0,90,0.00,,---,0.00,VWS V13.01,2013-06-17 09:35:00,
2013-06-17 05:38:00,60.1,57.1,29.17,SW,225,0.0,0.0,90,0.00,,---,0.00,VWS V13.01,2013-06-17 09:38:00,
2013-06-17 05:40:00,60.1,57.1,29.17,SW,225,0.0,0.0,90,0.00,,---,0.00,VWS V13.01,2013-06-17 09:40:00,
2013-06-17 05:41:00,61.3,58.7,29.17,SW,225,0.0,0.0,91,0.00,,---,0.00,VWS V13.01,2013-06-17 09:41:00,
2013-06-17 05:42:00,61.3,58.7,29.17,SW,225,0.0,0.0,91,0.00,,---,0.00,VWS V13.01,2013-06-17 09:42:00,
2013-06-17 05:43:00,61.3,58.7,29.17,SW,225,0.0,0.0,91,0.00,,---,0.00,VWS V13.01,2013-06-17 09:43:00,
2013-06-17 05:45:00,61.3,58.7,29.17,SW,225,0.0,0.0,91,0.00,,---,0.00,VWS V13.01,2013-06-17 09:45:00,
2013-06-17 05:47:00,61.3,58.7,29.17,SW,225,0.0,0.0,91,0.00,,---,0.00,VWS V13.01,2013-06-17 09:47:00,
2013-06-17 05:48:00,61.3,58.7,29.17,SW,225,0.0,0.0,91,0.00,,---,0.00,VWS V13.01,2013-06-17 09:48:00,
2013-06-17 05:49:00,61.3,58.7,29.17,SW,225,0.0,0.0,91,0.00,,---,0.00,VWS V13.01,2013-06-17 09:49:00,
2013-06-17 05:50:00,61.3,58.7,29.17,SW,225,0.0,0.0,91,0.00,,---,0.00,VWS V13.01,2013-06-17 09:50:00,
2013-06-17 05:51:00,61.3,58.7,29.17,SW,225,0.0,0.0,91,0.00,,---,0.00,VWS V13.01,2013-06-17 09:51:00,
2013-06-17 05:52:00,61.3,58.7,29.17,SW,225,0.0,0.0,91,0.00,,---,0.00,VWS V13.01,2013-06-17 09:52:00,
2013-06-17 05:54:00,61.3,58.7,29.17,SSW,202,0.0,0.0,91,0.00,,---,0.00,VWS V13.01,2013-06-17 09:54:00,
2013-06-17 05:55:00,61.3,58.7,29.17,WSW,248,0.0,0.0,91,0.00,,---,0.00,VWS V13.01,2013-06-17 09:55:00,
2013-06-17 05:56:00,61.3,58.7,29.17,SW,225,0.0,0.0,91,0.00,,---,0.00,VWS V13.01,2013-06-17 09:56:00,
2013-06-17 05:57:00,61.3,58.7,29.17,SW,225,0.0,0.0,91,0.00,,---,0.00,VWS V13.01,2013-06-17 09:57:00,
2013-06-17 06:00:00,61.3,58.7,29.17,SSW,202,0.0,0.0,91,0.00,,---,0.00,VWS V13.01,2013-06-17 10:00:00,
2013-06-17 06:01:00,61.3,58.7,29.17,SSW,202,0.0,0.0,91,0.00,,---,0.00,VWS V13.01,2013-06-17 10:01:00,
2013-06-17 06:02:00,61.3,58.7,29.17,WSW,248,0.0,0.0,91,0.00,,---,0.00,VWS V13.01,2013-06-17 10:02:00,
2013-06-17 06:03:00,61.3,58.7,29.17,WSW,248,0.0,0.0,91,0.00,,---,0.00,VWS V13.01,2013-06-17 10:03:00,
2013-06-17 06:06:00,61.3,58.7,29.17,SW,225,0.0,0.0,91,0.00,,---,0.00,VWS V13.01,2013-06-17 10:06:00,
2013-06-17 06:07:00,63.1,61.1,29.17,SW,225,0.0,0.0,93,0.00,,---,0.00,VWS V13.01,2013-06-17 10:07:00,
2013-06-17 06:08:00,63.1,61.1,29.17,SW,225,0.0,0.0,93,0.00,,---,0.00,VWS V13.01,2013-06-17 10:08:00,
2013-06-17 06:09:00,63.1,61.1,29.17,SW,225,0.0,0.0,93,0.00,,---,0.00,VWS V13.01,2013-06-17 10:09:00,
2013-06-17 06:11:00,63.1,61.1,29.17,SW,225,0.0,0.0,93,0.00,,---,0.00,VWS V13.01,2013-06-17 10:11:00,
2013-06-17 06:13:00,63.1,61.1,29.17,WSW,248,0.9,0.9,93,0.00,,---,0.00,VWS V13.01,2013-06-17 10:13:00,
2013-06-17 06:14:00,63.1,61.1,29.17,SW,225,0.0,0.9,93,0.00,,---,0.00,VWS V13.01,2013-06-17 10:14:00,
2013-06-17 06:15:00,63.1,61.1,29.17,SW,225,0.0,0.9,93,0.00,,---,0.00,VWS V13.01,2013-06-17 10:15:00,
2013-06-17 06:17:00,63.1,61.1,29.17,SW,225,0.0,0.0,93,0.00,,---,0.00,VWS V13.01,2013-06-17 10:17:00,
2013-06-17 06:18:00,63.1,61.1,29.17,SW,225,0.0,0.0,93,0.00,,---,0.00,VWS V13.01,2013-06-17 10:18:00,
2013-06-17 06:19:00,63.1,61.1,29.17,SW,225,1.6,1.6,93,0.00,,---,0.00,VWS V13.01,2013-06-17 10:19:00,
2013-06-17 06:21:00,63.1,61.1,29.17,WSW,248,0.0,2.2,93,0.00,,---,0.00,VWS V13.01,2013-06-17 10:21:00,
2013-06-17 06:22:00,64.2,62.2,29.17,SSW,202,0.0,0.0,93,0.00,,---,0.00,VWS V13.01,2013-06-17 10:22:00,
2013-06-17 06:23:00,64.2,62.2,29.20,WSW,248,2.2,2.2,93,0.00,,---,0.00,VWS V13.01,2013-06-17 10:23:00,
2013-06-17 06:24:00,64.2,62.2,29.20,WSW,248,1.1,2.2,93,0.00,,---,0.00,VWS V13.01,2013-06-17 10:24:00,
2013-06-17 06:25:00,64.2,62.2,29.20,SW,225,0.0,1.1,93,0.00,,---,0.00,VWS V13.01,2013-06-17 10:25:00,
2013-06-17 06:26:00,64.2,62.2,29.20,South,180,0.0,0.0,93,0.00,,---,0.00,VWS V13.01,2013-06-17 10:26:00,
2013-06-17 06:30:00,64.8,62.4,29.20,SW,225,0.0,0.0,92,0.00,,---,0.00,VWS V13.01,2013-06-17 10:30:00,
2013-06-17 06:32:00,64.8,62.4,29.20,West,270,2.2,2.2,92,0.00,,---,0.00,VWS V13.01,2013-06-17 10:32:00,
2013-06-17 06:34:00,64.8,62.4,29.20,SSW,202,0.0,0.0,92,0.00,,---,0.00,VWS V13.01,2013-06-17 10:34:00,
2013-06-17 06:36:00,64.8,62.4,29.20,SW,225,0.0,0.0,92,0.00,,---,0.00,VWS V13.01,2013-06-17 10:36:00,
2013-06-17 06:37:00,64.8,62.4,29.20,WSW,248,2.0,2.0,92,0.00,,---,0.00,VWS V13.01,2013-06-17 10:37:00,
2013-06-17 06:38:00,65.1,62.7,29.20,SW,225,0.0,2.0,92,0.00,,---,0.00,VWS V13.01,2013-06-17 10:38:00,
2013-06-17 06:39:00,65.1,62.7,29.20,WSW,248,1.1,1.1,92,0.00,,---,0.00,VWS V13.01,2013-06-17 10:39:00,
2013-06-17 06:41:00,65.1,62.7,29.20,West,270,2.2,2.2,92,0.00,,---,0.00,VWS V13.01,2013-06-17 10:41:00,
2013-06-17 06:42:00,65.1,62.7,29.20,West,270,2.2,2.2,92,0.00,,---,0.00,VWS V13.01,2013-06-17 10:42:00,
2013-06-17 06:43:00,65.1,62.7,29.20,SW,225,0.0,0.0,92,0.00,,---,0.00,VWS V13.01,2013-06-17 10:43:00,
2013-06-17 06:44:00,65.1,62.7,29.20,South,180,0.0,0.0,92,0.00,,---,0.00,VWS V13.01,2013-06-17 10:44:00,
2013-06-17 06:46:00,65.1,62.7,29.20,SW,225,0.0,0.0,92,0.00,,---,0.00,VWS V13.01,2013-06-17 10:46:00,
2013-06-17 06:47:00,65.1,62.7,29.20,SW,225,0.0,0.0,92,0.00,,---,0.00,VWS V13.01,2013-06-17 10:47:00,
2013-06-17 06:48:00,65.1,62.7,29.20,SW,225,0.0,0.0,92,0.00,,---,0.00,VWS V13.01,2013-06-17 10:48:00,
2013-06-17 06:49:00,65.1,62.7,29.20,SW,225,0.0,0.0,92,0.00,,---,0.00,VWS V13.01,2013-06-17 10:49:00,
2013-06-17 06:50:00,65.1,62.7,29.20,SW,225,0.0,0.0,92,0.00,,---,0.00,VWS V13.01,2013-06-17 10:50:00,
2013-06-17 06:51:00,65.1,62.7,29.20,SW,225,0.0,0.0,92,0.00,,---,0.00,VWS V13.01,2013-06-17 10:51:00,
2013-06-17 06:53:00,65.1,62.7,29.20,SW,225,0.0,0.0,92,0.00,,---,0.00,VWS V13.01,2013-06-17 10:53:00,
2013-06-17 06:54:00,65.1,62.7,29.20,SW,225,0.0,0.0,92,0.00,,---,0.00,VWS V13.01,2013-06-17 10:54:00,
2013-06-17 06:55:00,65.1,62.7,29.20,SW,225,0.0,0.0,92,0.00,,---,0.00,VWS V13.01,2013-06-17 10:55:00,
2013-06-17 06:57:00,65.5,62.8,29.20,SW,225,0.0,0.0,91,0.00,,---,0.00,VWS V13.01,2013-06-17 10:57:00,
2013-06-17 06:58:00,65.5,62.8,29.20,SW,225,0.0,0.0,91,0.00,,---,0.00,VWS V13.01,2013-06-17 10:58:00,
2013-06-17 07:00:00,65.5,62.8,29.20,SSW,202,0.0,0.0,91,0.00,,---,0.00,VWS V13.01,2013-06-17 11:00:00,
2013-06-17 07:02:00,65.5,62.8,29.20,SW,225,0.0,0.0,91,0.00,,---,0.00,VWS V13.01,2013-06-17 11:02:00,
2013-06-17 07:04:00,65.5,62.8,29.20,WSW,248,0.0,0.0,91,0.00,,---,0.00,VWS V13.01,2013-06-17 11:04:00,
2013-06-17 07:05:00,65.5,62.8,29.20,WSW,248,0.0,0.0,91,0.00,,---,0.00,VWS V13.01,2013-06-17 11:05:00,
2013-06-17 07:07:00,65.5,62.8,29.20,SW,225,0.0,0.0,91,0.00,,---,0.00,VWS V13.01,2013-06-17 11:07:00,
2013-06-17 07:08:00,65.5,62.8,29.20,SW,225,0.0,0.0,91,0.00,,---,0.00,VWS V13.01,2013-06-17 11:08:00,
2013-06-17 07:09:00,65.5,62.8,29.20,South,180,0.0,0.0,91,0.00,,---,0.00,VWS V13.01,2013-06-17 11:09:00,
2013-06-17 07:11:00,65.7,63.0,29.20,South,180,0.0,0.0,91,0.00,,---,0.00,VWS V13.01,2013-06-17 11:11:00,
2013-06-17 07:13:00,65.7,63.0,29.20,SW,225,0.0,0.0,91,0.00,,---,0.00,VWS V13.01,2013-06-17 11:13:00,
2013-06-17 07:14:00,65.7,63.0,29.20,SSW,202,0.0,0.0,91,0.00,,---,0.00,VWS V13.01,2013-06-17 11:14:00,
2013-06-17 07:16:00,65.7,63.0,29.20,SSW,202,0.0,0.0,91,0.00,,---,0.00,VWS V13.01,2013-06-17 11:16:00,
2013-06-17 07:17:00,65.7,63.0,29.20,SSW,202,0.0,0.0,91,0.00,,---,0.00,VWS V13.01,2013-06-17 11:17:00,
2013-06-17 07:18:00,65.7,63.0,29.20,SSW,202,0.0,0.0,91,0.00,,---,0.00,VWS V13.01,2013-06-17 11:18:00,
2013-06-17 07:19:00,65.7,63.0,29.20,SSW,202,0.0,0.0,91,0.00,,---,0.00,VWS V13.01,2013-06-17 11:19:00,
2013-06-17 07:23:00,65.7,63.0,29.20,SW,225,0.0,0.0,91,0.00,,---,0.00,VWS V13.01,2013-06-17 11:23:00,
2013-06-17 07:24:00,65.7,63.0,29.20,SW,225,0.0,0.0,91,0.00,,---,0.00,VWS V13.01,2013-06-17 11:24:00,
2013-06-17 07:25:00,65.7,63.0,29.20,SW,225,0.0,0.0,91,0.00,,---,0.00,VWS V13.01,2013-06-17 11:25:00,
2013-06-17 07:28:00,66.2,63.2,29.20,South,180,0.0,0.0,90,0.00,,---,0.00,VWS V13.01,2013-06-17 11:28:00,
2013-06-17 07:29:00,66.2,63.2,29.20,SSW,202,0.0,0.0,90,0.00,,---,0.00,VWS V13.01,2013-06-17 11:29:00,
2013-06-17 07:30:00,66.2,63.2,29.20,SSW,202,0.0,0.0,90,0.00,,---,0.00,VWS V13.01,2013-06-17 11:30:00,
2013-06-17 07:32:00,66.2,63.2,29.20,SSW,202,0.0,0.0,90,0.00,,---,0.00,VWS V13.01,2013-06-17 11:32:00,
2013-06-17 07:34:00,66.2,63.2,29.20,SSW,202,0.0,0.0,90,0.00,,---,0.00,VWS V13.01,2013-06-17 11:34:00,
2013-06-17 07:35:00,66.2,63.2,29.20,SSW,202,0.0,0.0,90,0.00,,---,0.00,VWS V13.01,2013-06-17 11:35:00,
2013-06-17 07:36:00,66.2,63.2,29.20,SSW,202,0.0,0.0,90,0.00,,---,0.00,VWS V13.01,2013-06-17 11:36:00,
2013-06-17 07:37:00,66.2,63.2,29.20,SW,225,0.0,0.0,90,0.00,,---,0.00,VWS V13.01,2013-06-17 11:37:00,
2013-06-17 07:40:00,66.2,63.2,29.20,SSW,202,0.0,0.0,90,0.00,,---,0.00,VWS V13.01,2013-06-17 11:40:00,
2013-06-17 07:41:00,66.2,63.2,29.20,SSW,202,0.0,0.0,90,0.00,,---,0.00,VWS V13.01,2013-06-17 11:41:00,
2013-06-17 07:42:00,66.2,63.2,29.20,SW,225,0.0,0.0,90,0.00,,---,0.00,VWS V13.01,2013-06-17 11:42:00,
2013-06-17 07:46:00,66.2,63.2,29.20,SW,225,0.0,0.0,90,0.00,,---,0.00,VWS V13.01,2013-06-17 11:46:00,
2013-06-17 07:47:00,66.2,63.2,29.20,SW,225,0.0,0.0,90,0.00,,---,0.00,VWS V13.01,2013-06-17 11:47:00,
2013-06-17 07:48:00,66.2,63.2,29.20,WSW,248,0.0,0.0,90,0.00,,---,0.00,VWS V13.01,2013-06-17 11:48:00,
2013-06-17 07:49:00,67.6,64.3,29.20,SSW,202,0.0,0.0,89,0.00,,---,0.00,VWS V13.01,2013-06-17 11:49:00,
2013-06-17 07:52:00,67.6,64.3,29.20,SSW,202,0.0,0.0,89,0.00,,---,0.00,VWS V13.01,2013-06-17 11:52:00,
2013-06-17 07:53:00,67.8,64.5,29.20,WNW,292,0.0,0.0,89,0.00,,---,0.00,VWS V13.01,2013-06-17 11:53:00,
2013-06-17 07:55:00,67.8,64.5,29.20,SW,225,0.0,0.0,89,0.00,,---,0.00,VWS V13.01,2013-06-17 11:55:00,
2013-06-17 07:56:00,67.8,64.5,29.20,West,270,1.6,1.6,89,0.00,,---,0.00,VWS V13.01,2013-06-17 11:56:00,
2013-06-17 07:58:00,67.8,64.5,29.20,SSW,202,0.0,1.6,89,0.00,,---,0.00,VWS V13.01,2013-06-17 11:58:00,
2013-06-17 07:59:00,67.8,64.5,29.20,SW,225,0.0,0.0,89,0.00,,---,0.00,VWS V13.01,2013-06-17 11:59:00,
2013-06-17 08:00:00,68.0,64.0,29.20,SW,225,0.0,0.0,87,0.00,,---,0.00,VWS V13.01,2013-06-17 12:00:00,
2013-06-17 08:01:00,68.0,64.0,29.20,SW,225,0.0,0.0,87,0.00,,---,0.00,VWS V13.01,2013-06-17 12:01:00,
2013-06-17 08:03:00,68.0,64.0,29.20,SW,225,0.0,0.0,87,0.00,,---,0.00,VWS V13.01,2013-06-17 12:03:00,
2013-06-17 08:04:00,68.0,64.0,29.20,SSW,202,0.0,0.0,87,0.00,,---,0.00,VWS V13.01,2013-06-17 12:04:00,
2013-06-17 08:05:00,68.0,64.0,29.20,West,270,2.2,2.2,87,0.00,,---,0.00,VWS V13.01,2013-06-17 12:05:00,
2013-06-17 08:06:00,68.0,64.0,29.20,West,270,0.0,0.9,87,0.00,,---,0.00,VWS V13.01,2013-06-17 12:06:00,
2013-06-17 08:07:00,68.0,64.0,29.20,West,270,1.1,1.1,87,0.00,,---,0.00,VWS V13.01,2013-06-17 12:07:00,
2013-06-17 08:08:00,68.0,64.0,29.20,SW,225,0.0,1.1,87,0.00,,---,0.00,VWS V13.01,2013-06-17 12:08:00,
2013-06-17 08:09:00,68.0,64.0,29.20,South,180,0.0,0.0,87,0.00,,---,0.00,VWS V13.01,2013-06-17 12:09:00,
2013-06-17 08:12:00,68.0,64.0,29.20,SW,225,0.0,0.0,87,0.00,,---,0.00,VWS V13.01,2013-06-17 12:12:00,
2013-06-17 08:13:00,68.0,64.0,29.20,SW,225,0.0,0.0,87,0.00,,---,0.00,VWS V13.01,2013-06-17 12:13:00,
2013-06-17 08:14:00,68.0,64.0,29.20,SW,225,0.0,0.0,87,0.00,,---,0.00,VWS V13.01,2013-06-17 12:14:00,
2013-06-17 08:17:00,68.9,64.6,29.20,SSW,202,0.0,0.0,86,0.00,,---,0.00,VWS V13.01,2013-06-17 12:17:00,
2013-06-17 08:18:00,68.9,64.6,29.20,SSW,202,0.0,0.0,86,0.00,,---,0.00,VWS V13.01,2013-06-17 12:18:00,
2013-06-17 08:19:00,68.9,64.6,29.20,SW,225,0.0,0.0,86,0.00,,---,0.00,VWS V13.01,2013-06-17 12:19:00,
2013-06-17 08:20:00,68.9,64.6,29.20,West,270,0.0,0.0,86,0.00,,---,0.00,VWS V13.01,2013-06-17 12:20:00,
2013-06-17 08:22:00,68.9,64.6,29.20,SW,225,0.0,0.0,86,0.00,,---,0.00,VWS V13.01,2013-06-17 12:22:00,
2013-06-17 08:24:00,68.9,64.6,29.20,SW,225,0.0,0.0,86,0.00,,---,0.00,VWS V13.01,2013-06-17 12:24:00,
2013-06-17 08:25:00,68.9,64.6,29.20,SW,225,0.0,0.0,86,0.00,,---,0.00,VWS V13.01,2013-06-17 12:25:00,
2013-06-17 08:26:00,68.9,64.6,29.20,SE,135,0.0,0.0,86,0.00,,---,0.00,VWS V13.01,2013-06-17 12:26:00,
2013-06-17 08:27:00,68.9,64.6,29.20,SE,135,0.0,0.0,86,0.00,,---,0.00,VWS V13.01,2013-06-17 12:27:00,
2013-06-17 08:29:00,68.9,64.6,29.20,SW,225,0.0,0.0,86,0.00,,---,0.00,VWS V13.01,2013-06-17 12:29:00,
2013-06-17 08:30:00,68.9,64.6,29.20,SW,225,0.0,0.0,86,0.00,,---,0.00,VWS V13.01,2013-06-17 12:30:00,
2013-06-17 08:33:00,69.4,64.7,29.20,SW,225,0.0,0.0,85,0.00,,---,0.00,VWS V13.01,2013-06-17 12:33:00,
2013-06-17 08:34:00,69.4,64.7,29.20,West,270,0.0,0.0,85,0.00,,---,0.00,VWS V13.01,2013-06-17 12:34:00,
2013-06-17 08:35:00,69.4,64.7,29.20,SSE,158,0.0,0.0,85,0.00,,---,0.00,VWS V13.01,2013-06-17 12:35:00,
2013-06-17 08:37:00,69.4,64.7,29.20,SSE,158,0.0,0.0,85,0.00,,---,0.00,VWS V13.01,2013-06-17 12:37:00,
2013-06-17 08:38:00,69.4,64.7,29.20,SSE,158,0.0,0.0,85,0.00,,---,0.00,VWS V13.01,2013-06-17 12:38:00,
2013-06-17 08:40:00,70.0,64.9,29.20,South,180,0.0,0.0,84,0.00,,---,0.00,VWS V13.01,2013-06-17 12:40:00,
2013-06-17 08:45:00,70.0,64.9,29.20,WSW,248,0.0,0.0,84,0.00,,---,0.00,VWS V13.01,2013-06-17 12:45:00,
2013-06-17 08:46:00,70.0,64.9,29.20,WSW,248,0.0,0.0,84,0.00,,---,0.00,VWS V13.01,2013-06-17 12:46:00,
2013-06-17 08:47:00,70.0,64.9,29.20,SSW,202,0.0,0.0,84,0.00,,---,0.00,VWS V13.01,2013-06-17 12:47:00,
2013-06-17 08:50:00,70.0,64.9,29.20,South,180,0.0,0.0,84,0.00,,---,0.00,VWS V13.01,2013-06-17 12:50:00,
2013-06-17 08:51:00,70.0,64.9,29.20,SSW,202,0.0,0.0,84,0.00,,---,0.00,VWS V13.01,2013-06-17 12:51:00,
2013-06-17 08:52:00,70.0,64.9,29.20,South,180,0.0,0.0,84,0.00,,---,0.00,VWS V13.01,2013-06-17 12:52:00,
2013-06-17 08:53:00,70.0,64.9,29.20,SSW,202,0.0,0.0,84,0.00,,---,0.00,VWS V13.01,2013-06-17 12:53:00,
2013-06-17 08:56:00,70.7,64.9,29.20,SSW,202,0.0,0.0,82,0.00,,---,0.00,VWS V13.01,2013-06-17 12:56:00,
2013-06-17 08:57:00,70.7,64.9,29.20,SSW,202,0.0,0.0,82,0.00,,---,0.00,VWS V13.01,2013-06-17 12:57:00,
2013-06-17 08:58:00,70.7,64.9,29.20,SSW,202,0.0,0.0,82,0.00,,---,0.00,VWS V13.01,2013-06-17 12:58:00,
2013-06-17 08:59:00,70.7,64.9,29.20,SSW,202,0.0,0.0,82,0.00,,---,0.00,VWS V13.01,2013-06-17 12:59:00,
2013-06-17 09:00:00,70.7,64.9,29.20,West,270,0.9,0.9,82,0.00,,---,0.00,VWS V13.01,2013-06-17 13:00:00,
2013-06-17 09:02:00,71.1,64.9,29.20,NNW,338,0.0,0.0,81,0.00,,---,0.00,VWS V13.01,2013-06-17 13:02:00,
2013-06-17 09:03:00,71.1,64.9,29.20,NNW,338,0.0,0.0,81,0.00,,---,0.00,VWS V13.01,2013-06-17 13:03:00,
2013-06-17 09:04:00,71.2,65.1,29.20,NNW,338,0.0,0.0,81,0.00,,---,0.00,VWS V13.01,2013-06-17 13:04:00,
2013-06-17 09:05:00,71.2,65.1,29.20,NNW,338,0.0,0.0,81,0.00,,---,0.00,VWS V13.01,2013-06-17 13:05:00,
2013-06-17 09:08:00,71.2,65.1,29.20,NNW,338,0.0,0.0,81,0.00,,---,0.00,VWS V13.01,2013-06-17 13:08:00,
2013-06-17 09:11:00,71.6,65.1,29.20,NNW,338,0.0,0.9,80,0.00,,---,0.00,VWS V13.01,2013-06-17 13:11:00,
2013-06-17 09:12:00,71.6,65.1,29.20,NNW,338,2.0,2.0,80,0.00,,---,0.00,VWS V13.01,2013-06-17 13:12:00,
2013-06-17 09:13:00,71.8,64.9,29.20,NNW,338,0.0,0.0,79,0.00,,---,0.00,VWS V13.01,2013-06-17 13:13:00,
2013-06-17 09:14:00,71.8,64.9,29.20,NNW,338,0.0,0.0,79,0.00,,---,0.00,VWS V13.01,2013-06-17 13:14:00,
2013-06-17 09:16:00,71.8,64.9,29.20,NNW,338,0.0,1.1,79,0.00,,---,0.00,VWS V13.01,2013-06-17 13:16:00,
2013-06-17 09:17:00,71.8,64.9,29.20,NNW,338,0.0,0.0,79,0.00,,---,0.00,VWS V13.01,2013-06-17 13:17:00,
2013-06-17 09:19:00,72.0,64.4,29.20,NNW,338,0.0,0.0,77,0.00,,---,0.00,VWS V13.01,2013-06-17 13:19:00,
2013-06-17 09:21:00,72.0,64.4,29.20,NNW,338,0.0,0.0,77,0.00,,---,0.00,VWS V13.01,2013-06-17 13:21:00,
2013-06-17 09:24:00,72.0,64.4,29.20,NNW,338,0.0,0.0,77,0.00,,---,0.00,VWS V13.01,2013-06-17 13:24:00,
2013-06-17 09:25:00,72.0,64.4,29.20,NNW,338,0.0,0.0,77,0.00,,---,0.00,VWS V13.01,2013-06-17 13:25:00,
2013-06-17 09:27:00,72.9,65.2,29.20,WSW,248,0.0,0.9,77,0.00,,---,0.00,VWS V13.01,2013-06-17 13:27:00,
2013-06-17 09:30:00,72.9,65.2,29.20,SE,135,0.0,1.6,77,0.00,,---,0.00,VWS V13.01,2013-06-17 13:30:00,
2013-06-17 09:31:00,72.9,65.2,29.20,WNW,292,0.0,0.0,77,0.00,,---,0.00,VWS V13.01,2013-06-17 13:31:00,
2013-06-17 09:32:00,72.9,65.2,29.20,WNW,292,0.0,0.0,77,0.00,,---,0.00,VWS V13.01,2013-06-17 13:32:00,
2013-06-17 09:33:00,72.9,65.2,29.20,North,0,0.0,1.3,77,0.00,,---,0.00,VWS V13.01,2013-06-17 13:33:00,
2013-06-17 09:36:00,73.4,65.4,29.20,NNW,338,1.1,2.7,76,0.00,,---,0.00,VWS V13.01,2013-06-17 13:36:00,
2013-06-17 09:37:00,73.4,65.4,29.20,NNW,338,2.0,2.0,76,0.00,,---,0.00,VWS V13.01,2013-06-17 13:37:00,
2013-06-17 09:39:00,73.8,65.3,29.20,NNW,338,0.0,0.0,75,0.00,,---,0.00,VWS V13.01,2013-06-17 13:39:00,
2013-06-17 09:40:00,73.8,65.3,29.20,NNW,338,0.0,0.0,75,0.00,,---,0.00,VWS V13.01,2013-06-17 13:40:00,
2013-06-17 09:41:00,73.8,65.3,29.20,NNW,338,0.0,0.0,75,0.00,,---,0.00,VWS V13.01,2013-06-17 13:41:00,
2013-06-17 09:45:00,73.8,65.3,29.20,NNW,338,0.0,0.0,75,0.00,,---,0.00,VWS V13.01,2013-06-17 13:45:00,
2013-06-17 09:46:00,73.8,65.3,29.20,NNW,338,0.0,1.3,75,0.00,,---,0.00,VWS V13.01,2013-06-17 13:46:00,
2013-06-17 09:47:00,73.8,65.3,29.20,NNW,338,0.0,0.0,75,0.00,,---,0.00,VWS V13.01,2013-06-17 13:47:00,
2013-06-17 09:51:00,73.8,65.3,29.20,NNW,338,0.0,0.0,75,0.00,,---,0.00,VWS V13.01,2013-06-17 13:51:00,
2013-06-17 09:52:00,73.8,65.3,29.20,NNW,338,0.0,0.0,75,0.00,,---,0.00,VWS V13.01,2013-06-17 13:52:00,
2013-06-17 09:53:00,73.8,65.3,29.20,NNW,338,0.0,0.0,75,0.00,,---,0.00,VWS V13.01,2013-06-17 13:53:00,
2013-06-17 09:54:00,73.8,65.3,29.20,NNW,338,0.0,0.9,75,0.00,,---,0.00,VWS V13.01,2013-06-17 13:54:00,
2013-06-17 09:56:00,73.8,65.3,29.20,NNW,338,0.0,0.0,75,0.00,,---,0.00,VWS V13.01,2013-06-17 13:56:00,
2013-06-17 09:58:00,73.8,65.3,29.20,SSW,202,1.3,1.3,75,0.00,,---,0.00,VWS V13.01,2013-06-17 13:58:00,
2013-06-17 09:59:00,73.8,65.3,29.20,SSW,202,0.0,1.3,75,0.00,,---,0.00,VWS V13.01,2013-06-17 13:59:00,
2013-06-17 10:02:00,75.2,66.0,29.20,West,270,0.0,0.0,73,0.00,,---,0.00,VWS V13.01,2013-06-17 14:02:00,
2013-06-17 10:03:00,75.2,66.0,29.20,West,270,0.0,0.0,73,0.00,,---,0.00,VWS V13.01,2013-06-17 14:03:00,
2013-06-17 10:04:00,75.2,66.0,29.20,NW,315,0.9,0.9,73,0.00,,---,0.00,VWS V13.01,2013-06-17 14:04:00,
2013-06-17 10:05:00,75.2,66.0,29.20,SW,225,1.1,1.1,73,0.00,,---,0.00,VWS V13.01,2013-06-17 14:05:00,
2013-06-17 10:08:00,75.4,65.7,29.20,NW,315,0.0,1.1,72,0.00,,---,0.00,VWS V13.01,2013-06-17 14:08:00,
2013-06-17 10:09:00,75.4,65.7,29.20,WSW,248,2.5,2.5,72,0.00,,---,0.00,VWS V13.01,2013-06-17 14:09:00,
2013-06-17 10:12:00,75.4,65.7,29.20,SW,225,0.0,1.1,72,0.00,,---,0.00,VWS V13.01,2013-06-17 14:12:00,
2013-06-17 10:13:00,75.4,65.7,29.20,SW,225,0.0,0.0,72,0.00,,---,0.00,VWS V13.01,2013-06-17 14:13:00,
2013-06-17 10:14:00,75.4,65.7,29.20,West,270,0.0,0.0,72,0.00,,---,0.00,VWS V13.01,2013-06-17 14:14:00,
2013-06-17 10:16:00,75.4,65.7,29.20,West,270,0.0,0.0,72,0.00,,---,0.00,VWS V13.01,2013-06-17 14:16:00,
2013-06-17 10:17:00,75.4,65.7,29.20,South,180,0.0,0.0,72,0.00,,---,0.00,VWS V13.01,2013-06-17 14:17:00,
2013-06-17 10:18:00,75.4,65.7,29.20,SW,225,1.1,1.1,72,0.00,,---,0.00,VWS V13.01,2013-06-17 14:18:00,
2013-06-17 10:20:00,75.4,65.7,29.20,West,270,2.5,2.5,72,0.00,,---,0.00,VWS V13.01,2013-06-17 14:20:00,
2013-06-17 10:22:00,75.4,65.7,29.17,WSW,248,1.6,2.7,72,0.00,,---,0.00,VWS V13.01,2013-06-17 14:22:00,
2013-06-17 10:23:00,75.4,65.7,29.17,SSW,202,0.0,1.1,72,0.00,,---,0.00,VWS V13.01,2013-06-17 14:23:00,
2013-06-17 10:25:00,75.4,65.7,29.17,SSW,202,0.0,0.0,72,0.00,,---,0.00,VWS V13.01,2013-06-17 14:25:00,
2013-06-17 10:27:00,76.6,66.1,29.17,SW,225,0.0,0.0,70,0.00,,---,0.00,VWS V13.01,2013-06-17 14:27:00,
2013-06-17 10:28:00,76.6,66.1,29.17,SW,225,0.0,0.0,70,0.00,,---,0.00,VWS V13.01,2013-06-17 14:28:00,
2013-06-17 10:30:00,76.8,65.9,29.17,South,180,0.0,0.0,69,0.00,,---,0.00,VWS V13.01,2013-06-17 14:30:00,
2013-06-17 10:31:00,76.8,65.9,29.17,SSE,158,0.0,0.0,69,0.00,,---,0.00,VWS V13.01,2013-06-17 14:31:00,
2013-06-17 10:33:00,77.0,66.1,29.17,SSE,158,0.0,0.0,69,0.00,,---,0.00,VWS V13.01,2013-06-17 14:33:00,
2013-06-17 10:34:00,77.0,66.1,29.17,SSW,202,0.0,0.0,69,0.00,,---,0.00,VWS V13.01,2013-06-17 14:34:00,
2013-06-17 10:35:00,77.0,66.1,29.17,SW,225,0.0,2.5,69,0.00,,---,0.00,VWS V13.01,2013-06-17 14:35:00,
2013-06-17 10:36:00,77.0,66.1,29.17,SW,225,0.0,2.5,69,0.00,,---,0.00,VWS V13.01,2013-06-17 14:36:00,
2013-06-17 10:38:00,77.0,65.6,29.17,NW,315,0.0,1.6,68,0.00,,---,0.00,VWS V13.01,2013-06-17 14:38:00,
2013-06-17 10:39:00,77.0,65.6,29.17,NW,315,0.0,0.0,68,0.00,,---,0.00,VWS V13.01,2013-06-17 14:39:00,
2013-06-17 10:40:00,77.0,65.6,29.17,NW,315,0.0,0.0,68,0.00,,---,0.00,VWS V13.01,2013-06-17 14:40:00,
2013-06-17 10:41:00,77.2,65.8,29.17,NW,315,0.0,0.0,68,0.00,,---,0.00,VWS V13.01,2013-06-17 14:41:00,
2013-06-17 10:44:00,77.4,65.6,29.17,NW,315,1.3,1.3,67,0.00,,---,0.00,VWS V13.01,2013-06-17 14:44:00,
2013-06-17 10:46:00,77.4,65.6,29.17,NW,315,1.1,1.1,67,0.00,,---,0.00,VWS V13.01,2013-06-17 14:46:00,
2013-06-17 10:49:00,77.5,65.3,29.17,NW,315,0.0,0.0,66,0.00,,---,0.00,VWS V13.01,2013-06-17 14:49:00,
2013-06-17 10:50:00,77.5,65.3,29.17,NW,315,1.1,1.1,66,0.00,,---,0.00,VWS V13.01,2013-06-17 14:50:00,
2013-06-17 10:52:00,77.5,65.3,29.17,SSW,202,1.1,1.1,66,0.00,,---,0.00,VWS V13.01,2013-06-17 14:52:00,
2013-06-17 10:54:00,77.5,65.3,29.17,WSW,248,0.0,1.1,66,0.00,,---,0.00,VWS V13.01,2013-06-17 14:54:00,
2013-06-17 10:55:00,77.5,65.3,29.17,WSW,248,0.0,0.0,66,0.00,,---,0.00,VWS V13.01,2013-06-17 14:55:00,
2013-06-17 10:56:00,77.5,65.3,29.17,WSW,248,0.0,0.0,66,0.00,,---,0.00,VWS V13.01,2013-06-17 14:56:00,
2013-06-17 10:58:00,77.9,66.1,29.17,NW,315,1.1,1.1,67,0.00,,---,0.00,VWS V13.01,2013-06-17 14:58:00,
2013-06-17 11:01:00,78.3,65.5,29.17,WSW,248,2.5,2.5,65,0.00,,---,0.00,VWS V13.01,2013-06-17 15:01:00,
2013-06-17 11:04:00,78.3,65.5,29.17,WNW,292,0.0,1.3,65,0.00,,---,0.00,VWS V13.01,2013-06-17 15:04:00,
2013-06-17 11:07:00,78.3,65.5,29.17,WSW,248,2.5,2.5,65,0.00,,---,0.00,VWS V13.01,2013-06-17 15:07:00,
2013-06-17 11:09:00,78.3,65.5,29.17,ESE,112,1.1,2.5,65,0.00,,---,0.00,VWS V13.01,2013-06-17 15:09:00,
2013-06-17 11:12:00,78.4,65.7,29.17,South,180,0.0,0.0,65,0.00,,---,0.00,VWS V13.01,2013-06-17 15:12:00,
2013-06-17 11:13:00,78.4,65.7,29.17,South,180,1.1,1.1,65,0.00,,---,0.00,VWS V13.01,2013-06-17 15:13:00,
2013-06-17 11:14:00,78.4,65.7,29.17,WSW,248,1.6,1.6,65,0.00,,---,0.00,VWS V13.01,2013-06-17 15:14:00,
2013-06-17 11:15:00,78.6,66.3,29.17,NW,315,2.7,2.7,66,0.00,,---,0.00,VWS V13.01,2013-06-17 15:15:00,
2013-06-17 11:19:00,78.6,65.4,29.17,SSW,202,0.0,0.0,64,0.00,,---,0.00,VWS V13.01,2013-06-17 15:19:00,
2013-06-17 11:20:00,78.6,65.4,29.17,SSW,202,0.0,0.0,64,0.00,,---,0.00,VWS V13.01,2013-06-17 15:20:00,
2013-06-17 11:21:00,78.6,65.4,29.17,WSW,248,0.0,0.0,64,0.00,,---,0.00,VWS V13.01,2013-06-17 15:21:00,
2013-06-17 11:22:00,78.8,65.6,29.17,SSW,202,0.0,0.0,64,0.00,,---,0.00,VWS V13.01,2013-06-17 15:22:00,
2013-06-17 11:24:00,78.8,65.6,29.17,SSW,202,2.0,2.5,64,0.00,,---,0.00,VWS V13.01,2013-06-17 15:24:00,
2013-06-17 11:26:00,79.0,65.8,29.17,WSW,248,2.0,2.0,64,0.00,,---,0.00,VWS V13.01,2013-06-17 15:26:00,
2013-06-17 11:27:00,79.0,65.8,29.17,WSW,248,2.0,2.0,64,0.00,,---,0.00,VWS V13.01,2013-06-17 15:27:00,
2013-06-17 11:30:00,79.0,65.8,29.17,WSW,248,1.1,1.6,64,0.00,,---,0.00,VWS V13.01,2013-06-17 15:30:00,
2013-06-17 11:32:00,79.2,65.5,29.17,SSW,202,0.9,1.3,63,0.00,,---,0.00,VWS V13.01,2013-06-17 15:32:00,
2013-06-17 11:33:00,79.2,65.5,29.17,WSW,248,1.1,1.1,63,0.00,,---,0.00,VWS V13.01,2013-06-17 15:33:00,
2013-06-17 11:34:00,79.2,65.5,29.17,WSW,248,1.1,1.1,63,0.00,,---,0.00,VWS V13.01,2013-06-17 15:34:00,
2013-06-17 11:36:00,79.2,65.5,29.17,West,270,0.9,0.9,63,0.00,,---,0.00,VWS V13.01,2013-06-17 15:36:00,
2013-06-17 11:38:00,79.2,65.5,29.17,SW,225,0.0,1.1,63,0.00,,---,0.00,VWS V13.01,2013-06-17 15:38:00,
2013-06-17 11:39:00,79.2,65.5,29.17,West,270,1.6,1.6,63,0.00,,---,0.00,VWS V13.01,2013-06-17 15:39:00,
2013-06-17 11:40:00,79.2,65.5,29.17,NW,315,1.1,1.6,63,0.00,,---,0.00,VWS V13.01,2013-06-17 15:40:00,
2013-06-17 11:42:00,79.2,65.5,29.17,WNW,292,0.0,1.1,63,0.00,,---,0.00,VWS V13.01,2013-06-17 15:42:00,
2013-06-17 11:43:00,79.2,65.5,29.17,South,180,0.0,1.6,63,0.00,,---,0.00,VWS V13.01,2013-06-17 15:43:00,
2013-06-17 11:45:00,79.2,65.5,29.17,SW,225,0.0,0.0,63,0.00,,---,0.00,VWS V13.01,2013-06-17 15:45:00,
2013-06-17 11:46:00,79.2,65.5,29.17,SW,225,2.0,2.0,63,0.00,,---,0.00,VWS V13.01,2013-06-17 15:46:00,
2013-06-17 11:48:00,79.3,64.7,29.17,West,270,1.1,1.1,61,0.00,,---,0.00,VWS V13.01,2013-06-17 15:48:00,
2013-06-17 11:50:00,79.3,64.7,29.17,SW,225,1.1,3.1,61,0.00,,---,0.00,VWS V13.01,2013-06-17 15:50:00,
2013-06-17 11:53:00,79.5,64.9,29.17,SSW,202,0.0,0.0,61,0.00,,---,0.00,VWS V13.01,2013-06-17 15:53:00,
2013-06-17 11:54:00,79.5,64.9,29.17,NW,315,1.3,2.9,61,0.00,,---,0.00,VWS V13.01,2013-06-17 15:54:00,
2013-06-17 11:55:00,79.5,64.9,29.17,NNW,338,2.7,2.7,61,0.00,,---,0.00,VWS V13.01,2013-06-17 15:55:00,
2013-06-17 11:56:00,79.5,64.9,29.17,NNW,338,0.0,0.0,61,0.00,,---,0.00,VWS V13.01,2013-06-17 15:56:00,
2013-06-17 11:57:00,79.5,64.9,29.17,NNW,338,0.0,0.0,61,0.00,,---,0.00,VWS V13.01,2013-06-17 15:57:00,
2013-06-17 11:59:00,79.5,64.9,29.17,NNW,338,2.2,2.2,61,0.00,,---,0.00,VWS V13.01,2013-06-17 15:59:00,
2013-06-17 12:00:00,79.5,64.9,29.17,NNW,338,0.0,2.2,61,0.00,,---,0.00,VWS V13.01,2013-06-17 16:00:00,
2013-06-17 12:01:00,79.5,64.9,29.17,NNW,338,0.0,0.0,61,0.00,,---,0.00,VWS V13.01,2013-06-17 16:01:00,
2013-06-17 12:02:00,79.5,64.9,29.17,WSW,248,0.9,0.9,61,0.00,,---,0.00,VWS V13.01,2013-06-17 16:02:00,
2013-06-17 12:03:00,79.5,64.9,29.17,SSW,202,0.0,0.9,61,0.00,,---,0.00,VWS V13.01,2013-06-17 16:03:00,
2013-06-17 12:05:00,79.9,65.2,29.17,SW,225,0.0,0.0,61,0.00,,---,0.00,VWS V13.01,2013-06-17 16:05:00,
2013-06-17 12:06:00,79.9,65.2,29.17,West,270,2.5,2.5,61,0.00,,---,0.00,VWS V13.01,2013-06-17 16:06:00,
2013-06-17 12:09:00,79.9,65.2,29.17,SW,225,0.0,0.0,61,0.00,,---,0.00,VWS V13.01,2013-06-17 16:09:00,
2013-06-17 12:10:00,79.9,65.2,29.17,SSW,202,0.0,0.9,61,0.00,,---,0.00,VWS V13.01,2013-06-17 16:10:00,
2013-06-17 12:11:00,79.9,65.2,29.17,SSW,202,0.0,0.9,61,0.00,,---,0.00,VWS V13.01,2013-06-17 16:11:00,
2013-06-17 12:12:00,79.9,65.2,29.17,WSW,248,0.0,1.3,61,0.00,,---,0.00,VWS V13.01,2013-06-17 16:12:00,
2013-06-17 12:15:00,80.2,65.1,29.17,SSW,202,0.0,0.0,60,0.00,,---,0.00,VWS V13.01,2013-06-17 16:15:00,
2013-06-17 12:16:00,80.2,65.1,29.17,West,270,0.9,0.9,60,0.00,,---,0.00,VWS V13.01,2013-06-17 16:16:00,
2013-06-17 12:17:00,80.2,65.1,29.17,SW,225,0.9,0.9,60,0.00,,---,0.00,VWS V13.01,2013-06-17 16:17:00,
2013-06-17 12:19:00,80.4,64.8,29.17,West,270,2.9,2.9,59,0.00,,---,0.00,VWS V13.01,2013-06-17 16:19:00,
2013-06-17 12:21:00,80.4,64.8,29.17,NW,315,3.1,3.1,59,0.00,,---,0.00,VWS V13.01,2013-06-17 16:21:00,
2013-06-17 12:22:00,80.4,64.8,29.17,NW,315,1.6,3.1,59,0.00,,---,0.00,VWS V13.01,2013-06-17 16:22:00,
2013-06-17 12:23:00,80.4,64.8,29.17,WNW,292,2.5,2.5,59,0.00,,---,0.00,VWS V13.01,2013-06-17 16:23:00,
2013-06-17 12:24:00,80.4,64.8,29.17,South,180,0.0,2.5,59,0.00,,---,0.00,VWS V13.01,2013-06-17 16:24:00,
2013-06-17 12:25:00,80.4,64.8,29.17,South,180,0.0,0.0,59,0.00,,---,0.00,VWS V13.01,2013-06-17 16:25:00,
2013-06-17 12:27:00,80.4,64.8,29.17,South,180,0.0,0.0,59,0.00,,---,0.00,VWS V13.01,2013-06-17 16:27:00,
2013-06-17 12:28:00,80.4,64.8,29.17,ESE,112,0.0,0.0,59,0.00,,---,0.00,VWS V13.01,2013-06-17 16:28:00,
2013-06-17 12:29:00,80.4,64.8,29.17,ESE,112,0.0,0.0,59,0.00,,---,0.00,VWS V13.01,2013-06-17 16:29:00,
2013-06-17 12:31:00,80.4,64.8,29.17,ESE,112,0.0,0.0,59,0.00,,---,0.00,VWS V13.01,2013-06-17 16:31:00,
2013-06-17 12:32:00,80.4,64.8,29.17,ESE,112,0.0,0.0,59,0.00,,---,0.00,VWS V13.01,2013-06-17 16:32:00,
2013-06-17 12:33:00,80.4,64.8,29.17,SSW,202,1.3,1.3,59,0.00,,---,0.00,VWS V13.01,2013-06-17 16:33:00,
2013-06-17 12:34:00,80.4,64.8,29.17,SSW,202,1.3,1.3,59,0.00,,---,0.00,VWS V13.01,2013-06-17 16:34:00,
2013-06-17 12:37:00,80.4,64.8,29.17,South,180,0.0,0.0,59,0.00,,---,0.00,VWS V13.01,2013-06-17 16:37:00,
2013-06-17 12:39:00,80.4,64.8,29.17,SSW,202,0.0,0.0,59,0.00,,---,0.00,VWS V13.01,2013-06-17 16:39:00,
2013-06-17 12:40:00,80.4,64.8,29.17,SSW,202,1.3,1.3,59,0.00,,---,0.00,VWS V13.01,2013-06-17 16:40:00,
2013-06-17 12:42:00,81.1,66.4,29.17,SSW,202,0.0,0.9,61,0.00,,---,0.00,VWS V13.01,2013-06-17 16:42:00,
2013-06-17 12:43:00,81.1,66.4,29.17,South,180,0.9,0.9,61,0.00,,---,0.00,VWS V13.01,2013-06-17 16:43:00,
2013-06-17 12:44:00,81.1,66.4,29.17,West,270,0.0,2.2,61,0.00,,---,0.00,VWS V13.01,2013-06-17 16:44:00,
2013-06-17 12:45:00,81.3,66.6,29.17,SW,225,0.9,0.9,61,0.00,,---,0.00,VWS V13.01,2013-06-17 16:45:00,
2013-06-17 12:46:00,81.3,66.6,29.17,SW,225,0.9,0.9,61,0.00,,---,0.00,VWS V13.01,2013-06-17 16:46:00,
2013-06-17 12:48:00,81.5,65.8,29.17,South,180,0.0,0.0,59,0.00,,---,0.00,VWS V13.01,2013-06-17 16:48:00,
2013-06-17 12:51:00,81.5,65.8,29.17,South,180,0.0,0.0,59,0.00,,---,0.00,VWS V13.01,2013-06-17 16:51:00,
2013-06-17 12:52:00,81.5,65.8,29.17,West,270,2.5,2.5,59,0.00,,---,0.00,VWS V13.01,2013-06-17 16:52:00,
2013-06-17 12:53:00,81.5,65.8,29.17,West,270,2.5,2.5,59,0.00,,---,0.00,VWS V13.01,2013-06-17 16:53:00,
2013-06-17 12:54:00,81.5,65.8,29.17,West,270,2.5,2.5,59,0.00,,---,0.00,VWS V13.01,2013-06-17 16:54:00,
2013-06-17 12:56:00,81.5,65.8,29.17,NW,315,0.9,2.2,59,0.00,,---,0.00,VWS V13.01,2013-06-17 16:56:00,
2013-06-17 12:58:00,81.5,65.8,29.17,NW,315,0.0,0.9,59,0.00,,---,0.00,VWS V13.01,2013-06-17 16:58:00,
2013-06-17 12:59:00,81.5,65.8,29.17,NW,315,1.6,1.6,59,0.00,,---,0.00,VWS V13.01,2013-06-17 16:59:00,
2013-06-17 13:01:00,81.5,65.8,29.17,NW,315,0.0,0.0,59,0.00,,---,0.00,VWS V13.01,2013-06-17 17:01:00,
2013-06-17 13:02:00,81.5,65.8,29.17,NW,315,0.0,0.0,59,0.00,,---,0.00,VWS V13.01,2013-06-17 17:02:00,
2013-06-17 13:03:00,81.5,65.8,29.17,NW,315,0.0,0.0,59,0.00,,---,0.00,VWS V13.01,2013-06-17 17:03:00,
2013-06-17 13:04:00,81.5,65.8,29.17,NW,315,0.0,0.0,59,0.00,,---,0.00,VWS V13.01,2013-06-17 17:04:00,
2013-06-17 13:05:00,81.5,65.8,29.17,South,180,1.6,1.6,59,0.00,,---,0.00,VWS V13.01,2013-06-17 17:05:00,
2013-06-17 13:07:00,81.5,65.8,29.17,SSW,202,0.0,0.0,59,0.00,,---,0.00,VWS V13.01,2013-06-17 17:07:00,
2013-06-17 13:08:00,81.7,66.0,29.17,WSW,248,0.0,0.0,59,0.00,,---,0.00,VWS V13.01,2013-06-17 17:08:00,
2013-06-17 13:10:00,81.7,66.0,29.17,West,270,0.9,0.9,59,0.00,,---,0.00,VWS V13.01,2013-06-17 17:10:00,
2013-06-17 13:11:00,81.7,66.0,29.17,NW,315,1.3,1.3,59,0.00,,---,0.00,VWS V13.01,2013-06-17 17:11:00,
2013-06-17 13:12:00,80.6,65.0,29.17,NW,315,0.0,1.3,59,0.00,,---,0.00,VWS V13.01,2013-06-17 17:12:00,
2013-06-17 13:13:00,80.6,65.0,29.17,South,180,0.0,0.0,59,0.00,,---,0.00,VWS V13.01,2013-06-17 17:13:00,
2013-06-17 13:15:00,80.6,65.0,29.17,SE,135,0.0,0.0,59,0.00,,---,0.00,VWS V13.01,2013-06-17 17:15:00,
2013-06-17 13:17:00,80.6,65.0,29.17,SE,135,0.0,0.0,59,0.00,,---,0.00,VWS V13.01,2013-06-17 17:17:00,
2013-06-17 13:18:00,80.6,65.0,29.17,SSW,202,0.0,0.0,59,0.00,,---,0.00,VWS V13.01,2013-06-17 17:18:00,
2013-06-17 13:20:00,80.6,65.0,29.17,WNW,292,0.0,0.0,59,0.00,,---,0.00,VWS V13.01,2013-06-17 17:20:00,
2013-06-17 13:22:00,80.6,65.0,29.17,WSW,248,0.9,1.6,59,0.00,,---,0.00,VWS V13.01,2013-06-17 17:22:00,
2013-06-17 13:24:00,80.6,65.0,29.17,SW,225,1.6,1.6,59,0.00,,---,0.00,VWS V13.01,2013-06-17 17:24:00,
2013-06-17 13:25:00,80.6,65.0,29.17,WSW,248,0.0,0.0,59,0.00,,---,0.00,VWS V13.01,2013-06-17 17:25:00,
2013-06-17 13:27:00,76.5,64.7,29.17,West,270,0.0,0.0,67,0.00,,---,0.00,VWS V13.01,2013-06-17 17:27:00,
2013-06-17 13:28:00,76.5,64.7,29.17,WSW,248,0.0,0.0,67,0.00,,---,0.00,VWS V13.01,2013-06-17 17:28:00,
2013-06-17 13:30:00,76.5,64.7,29.17,SSW,202,0.0,0.0,67,0.00,,---,0.00,VWS V13.01,2013-06-17 17:30:00,
2013-06-17 13:31:00,76.5,64.7,29.17,SW,225,0.0,0.0,67,0.00,,---,0.00,VWS V13.01,2013-06-17 17:31:00,
2013-06-17 13:32:00,76.5,64.7,29.17,SW,225,0.0,0.0,67,0.00,,---,0.00,VWS V13.01,2013-06-17 17:32:00,
2013-06-17 13:33:00,76.5,64.7,29.17,SSW,202,0.0,0.0,67,0.00,,---,0.00,VWS V13.01,2013-06-17 17:33:00,
2013-06-17 13:34:00,73.9,63.1,29.17,SSW,202,0.0,0.0,69,0.00,,---,0.00,VWS V13.01,2013-06-17 17:34:00,
2013-06-17 13:35:00,73.9,63.1,29.17,SSW,202,0.0,0.0,69,0.00,,---,0.00,VWS V13.01,2013-06-17 17:35:00,
2013-06-17 13:37:00,73.9,63.1,29.17,SSW,202,0.0,0.0,69,0.00,,---,0.00,VWS V13.01,2013-06-17 17:37:00,
2013-06-17 13:39:00,73.2,62.9,29.17,WSW,248,0.0,0.0,70,0.00,,---,0.00,VWS V13.01,2013-06-17 17:39:00,
2013-06-17 13:41:00,73.2,62.9,29.17,WSW,248,0.9,0.9,70,0.04,,---,0.04,VWS V13.01,2013-06-17 17:41:00,
2013-06-17 13:42:00,73.2,62.9,29.17,West,270,2.5,2.5,70,0.04,,---,0.04,VWS V13.01,2013-06-17 17:42:00,
2013-06-17 13:43:00,73.2,62.9,29.17,SW,225,0.0,2.5,70,0.04,,---,0.04,VWS V13.01,2013-06-17 17:43:00,
2013-06-17 13:44:00,73.2,62.9,29.17,SW,225,0.0,0.0,70,0.04,,---,0.04,VWS V13.01,2013-06-17 17:44:00,
2013-06-17 13:47:00,73.2,62.9,29.17,SSW,202,0.0,0.0,70,0.04,,---,0.04,VWS V13.01,2013-06-17 17:47:00,
2013-06-17 13:48:00,73.2,62.9,29.17,SSW,202,0.0,0.0,70,0.04,,---,0.04,VWS V13.01,2013-06-17 17:48:00,
2013-06-17 13:50:00,73.2,62.9,29.17,WSW,248,0.0,0.0,70,0.04,,---,0.04,VWS V13.01,2013-06-17 17:50:00,
2013-06-17 13:51:00,73.2,62.9,29.17,East,90,0.0,0.0,70,0.04,,---,0.04,VWS V13.01,2013-06-17 17:51:00,
2013-06-17 13:54:00,73.2,62.9,29.17,South,180,0.0,0.0,70,0.09,,---,0.09,VWS V13.01,2013-06-17 17:54:00,
2013-06-17 13:55:00,73.2,62.9,29.17,South,180,1.1,1.1,70,0.09,,---,0.09,VWS V13.01,2013-06-17 17:55:00,
2013-06-17 13:57:00,73.2,62.9,29.17,SSW,202,0.0,0.0,70,0.09,,---,0.09,VWS V13.01,2013-06-17 17:57:00,
2013-06-17 13:59:00,73.2,62.9,29.17,SSW,202,0.0,0.0,70,0.09,,---,0.09,VWS V13.01,2013-06-17 17:59:00,
2013-06-17 14:00:00,73.2,62.9,29.17,SSW,202,0.0,0.0,70,0.09,,---,0.09,VWS V13.01,2013-06-17 18:00:00,
2013-06-17 14:02:00,72.5,64.9,29.17,South,180,0.0,0.9,77,0.09,,---,0.09,VWS V13.01,2013-06-17 18:02:00,
2013-06-17 14:03:00,72.5,64.9,29.17,SSW,202,0.0,0.0,77,0.09,,---,0.09,VWS V13.01,2013-06-17 18:03:00,
2013-06-17 14:05:00,72.9,65.6,29.17,South,180,0.0,0.0,78,0.09,,---,0.09,VWS V13.01,2013-06-17 18:05:00,
2013-06-17 14:06:00,72.9,65.6,29.17,South,180,0.0,0.0,78,0.09,,---,0.09,VWS V13.01,2013-06-17 18:06:00,
2013-06-17 14:07:00,72.9,65.6,29.17,South,180,0.0,0.0,78,0.09,,---,0.09,VWS V13.01,2013-06-17 18:07:00,
2013-06-17 14:08:00,72.9,65.6,29.17,South,180,0.0,0.0,78,0.09,,---,0.09,VWS V13.01,2013-06-17 18:08:00,
2013-06-17 14:10:00,72.9,65.6,29.17,SSW,202,0.0,0.0,78,0.09,,---,0.09,VWS V13.01,2013-06-17 18:10:00,
2013-06-17 14:12:00,73.6,66.7,29.17,SSW,202,1.1,1.1,79,0.09,,---,0.09,VWS V13.01,2013-06-17 18:12:00,
2013-06-17 14:13:00,73.6,66.7,29.17,SW,225,0.0,1.1,79,0.09,,---,0.09,VWS V13.01,2013-06-17 18:13:00,
2013-06-17 14:15:00,73.6,66.7,29.17,South,180,0.0,0.0,79,0.09,,---,0.09,VWS V13.01,2013-06-17 18:15:00,
2013-06-17 14:16:00,73.6,66.7,29.17,South,180,0.0,0.0,79,0.09,,---,0.09,VWS V13.01,2013-06-17 18:16:00,
2013-06-17 14:18:00,73.6,66.7,29.17,SW,225,0.0,0.0,79,0.09,,---,0.09,VWS V13.01,2013-06-17 18:18:00,
2013-06-17 14:20:00,73.6,66.7,29.17,SW,225,0.0,0.0,79,0.09,,---,0.09,VWS V13.01,2013-06-17 18:20:00,
2013-06-17 14:21:00,73.6,66.7,29.17,SW,225,0.0,0.0,79,0.09,,---,0.09,VWS V13.01,2013-06-17 18:21:00,
2013-06-17 14:23:00,73.6,66.7,29.17,SSW,202,0.0,0.0,79,0.09,,---,0.09,VWS V13.01,2013-06-17 18:23:00,
2013-06-17 14:24:00,73.6,66.7,29.17,SSW,202,0.0,0.0,79,0.09,,---,0.09,VWS V13.01,2013-06-17 18:24:00,
2013-06-17 14:25:00,73.6,66.7,29.17,SSW,202,0.0,0.0,79,0.09,,---,0.09,VWS V13.01,2013-06-17 18:25:00,
2013-06-17 14:26:00,73.6,66.7,29.17,SW,225,0.0,0.0,79,0.09,,---,0.09,VWS V13.01,2013-06-17 18:26:00,
2013-06-17 14:28:00,74.1,66.5,29.17,SW,225,0.0,0.0,77,0.09,,---,0.09,VWS V13.01,2013-06-17 18:28:00,
2013-06-17 14:30:00,74.1,66.5,29.17,SW,225,0.0,0.0,77,0.09,,---,0.09,VWS V13.01,2013-06-17 18:30:00,
2013-06-17 14:31:00,74.5,66.8,29.17,South,180,0.0,0.0,77,0.09,,---,0.09,VWS V13.01,2013-06-17 18:31:00,
2013-06-17 14:32:00,74.5,66.8,29.17,WSW,248,1.1,1.1,77,0.09,,---,0.09,VWS V13.01,2013-06-17 18:32:00,
2013-06-17 14:33:00,74.5,66.8,29.17,SSW,202,0.0,0.0,77,0.09,,---,0.09,VWS V13.01,2013-06-17 18:33:00,
2013-06-17 14:36:00,74.5,66.8,29.17,SSW,202,0.0,0.0,77,0.09,,---,0.09,VWS V13.01,2013-06-17 18:36:00,
2013-06-17 14:37:00,74.5,66.8,29.17,SSW,202,0.0,0.0,77,0.09,,---,0.09,VWS V13.01,2013-06-17 18:37:00,
2013-06-17 14:38:00,74.5,66.8,29.17,SSW,202,0.0,0.0,77,0.09,,---,0.09,VWS V13.01,2013-06-17 18:38:00,
2013-06-17 14:39:00,74.5,66.8,29.17,SSW,202,0.0,0.0,77,0.09,,---,0.09,VWS V13.01,2013-06-17 18:39:00,
2013-06-17 14:41:00,74.5,66.8,29.17,SSW,202,0.0,0.0,77,0.05,,---,0.09,VWS V13.01,2013-06-17 18:41:00,
2013-06-17 14:42:00,74.5,66.8,29.17,SSW,202,0.0,0.0,77,0.05,,---,0.09,VWS V13.01,2013-06-17 18:42:00,
2013-06-17 14:44:00,74.5,66.8,29.17,SSW,202,0.0,0.0,77,0.05,,---,0.09,VWS V13.01,2013-06-17 18:44:00,
2013-06-17 14:45:00,74.5,66.8,29.17,SW,225,0.0,0.0,77,0.05,,---,0.09,VWS V13.01,2013-06-17 18:45:00,
2013-06-17 14:48:00,74.5,66.8,29.17,SW,225,0.0,0.0,77,0.05,,---,0.09,VWS V13.01,2013-06-17 18:48:00,
2013-06-17 14:49:00,74.5,66.8,29.17,SE,135,0.0,0.0,77,0.05,,---,0.09,VWS V13.01,2013-06-17 18:49:00,
2013-06-17 14:50:00,75.7,67.6,29.14,ESE,112,1.1,1.1,76,0.05,,---,0.09,VWS V13.01,2013-06-17 18:50:00,
2013-06-17 14:53:00,75.7,67.6,29.14,SSW,202,0.0,0.0,76,0.05,,---,0.09,VWS V13.01,2013-06-17 18:53:00,
2013-06-17 14:54:00,76.1,68.4,29.14,ESE,112,0.0,0.0,77,0.05,,---,0.09,VWS V13.01,2013-06-17 18:54:00,
2013-06-17 14:56:00,76.1,68.4,29.14,SSW,202,0.0,0.0,77,0.00,,---,0.09,VWS V13.01,2013-06-17 18:56:00,
2013-06-17 14:58:00,76.1,68.4,29.14,SSE,158,0.9,0.9,77,0.00,,---,0.09,VWS V13.01,2013-06-17 18:58:00,
2013-06-17 14:59:00,76.1,68.4,29.14,SSW,202,0.0,0.0,77,0.00,,---,0.09,VWS V13.01,2013-06-17 18:59:00,
2013-06-17 15:01:00,76.8,68.3,29.14,SSW,202,0.0,0.0,75,0.00,,---,0.09,VWS V13.01,2013-06-17 19:01:00,
2013-06-17 15:02:00,76.8,68.3,29.14,SSW,202,0.0,0.0,75,0.00,,---,0.09,VWS V13.01,2013-06-17 19:02:00,
2013-06-17 15:04:00,76.8,68.3,29.14,SSW,202,0.0,0.0,75,0.00,,---,0.09,VWS V13.01,2013-06-17 19:04:00,
2013-06-17 15:06:00,76.8,67.5,29.14,SSW,202,0.0,0.0,73,0.00,,---,0.09,VWS V13.01,2013-06-17 19:06:00,
2013-06-17 15:07:00,76.8,67.5,29.14,SSW,202,0.0,0.0,73,0.00,,---,0.09,VWS V13.01,2013-06-17 19:07:00,
2013-06-17 15:08:00,76.8,67.5,29.14,SSW,202,0.0,0.0,73,0.00,,---,0.09,VWS V13.01,2013-06-17 19:08:00,
2013-06-17 15:10:00,76.8,67.5,29.14,SSW,202,0.0,0.0,73,0.00,,---,0.09,VWS V13.01,2013-06-17 19:10:00,
2013-06-17 15:11:00,76.8,67.5,29.14,SSW,202,0.0,0.0,73,0.00,,---,0.09,VWS V13.01,2013-06-17 19:11:00,
2013-06-17 15:12:00,76.8,67.5,29.14,SSW,202,0.0,0.0,73,0.00,,---,0.09,VWS V13.01,2013-06-17 19:12:00,
2013-06-17 15:13:00,76.8,67.5,29.14,SSW,202,0.0,0.0,73,0.00,,---,0.09,VWS V13.01,2013-06-17 19:13:00,
2013-06-17 15:16:00,77.2,67.1,29.14,SSW,202,0.0,0.0,71,0.00,,---,0.09,VWS V13.01,2013-06-17 19:16:00,
2013-06-17 15:17:00,77.2,67.1,29.14,WNW,292,1.3,1.3,71,0.00,,---,0.09,VWS V13.01,2013-06-17 19:17:00,
2013-06-17 15:20:00,77.4,66.4,29.14,SW,225,0.0,0.0,69,0.00,,---,0.09,VWS V13.01,2013-06-17 19:20:00,
2013-06-17 15:21:00,77.4,66.4,29.14,SSW,202,0.0,0.0,69,0.00,,---,0.09,VWS V13.01,2013-06-17 19:21:00,
2013-06-17 15:22:00,77.4,66.4,29.14,SSW,202,0.0,0.0,69,0.00,,---,0.09,VWS V13.01,2013-06-17 19:22:00,
2013-06-17 15:24:00,77.4,66.4,29.14,SSW,202,0.0,0.0,69,0.00,,---,0.09,VWS V13.01,2013-06-17 19:24:00,
2013-06-17 15:25:00,77.4,66.4,29.14,SSW,202,0.0,0.0,69,0.00,,---,0.09,VWS V13.01,2013-06-17 19:25:00,
2013-06-17 15:27:00,77.4,66.4,29.14,SSW,202,0.0,0.0,69,0.00,,---,0.09,VWS V13.01,2013-06-17 19:27:00,
2013-06-17 15:28:00,77.4,66.4,29.14,South,180,2.0,2.0,69,0.00,,---,0.09,VWS V13.01,2013-06-17 19:28:00,
2013-06-17 15:29:00,77.4,66.4,29.14,SW,225,0.0,0.0,69,0.00,,---,0.09,VWS V13.01,2013-06-17 19:29:00,
2013-06-17 15:31:00,77.9,67.3,29.14,SW,225,0.0,0.0,70,0.00,,---,0.09,VWS V13.01,2013-06-17 19:31:00,
2013-06-17 15:33:00,77.9,67.3,29.14,SSW,202,0.0,0.0,70,0.00,,---,0.09,VWS V13.01,2013-06-17 19:33:00,
2013-06-17 15:34:00,77.9,67.3,29.14,SW,225,0.0,0.0,70,0.00,,---,0.09,VWS V13.01,2013-06-17 19:34:00,
2013-06-17 15:35:00,77.9,67.3,29.14,SW,225,0.0,0.0,70,0.00,,---,0.09,VWS V13.01,2013-06-17 19:35:00,
2013-06-17 15:37:00,77.9,67.3,29.14,South,180,0.0,0.0,70,0.00,,---,0.09,VWS V13.01,2013-06-17 19:37:00,
2013-06-17 15:38:00,77.9,67.3,29.14,South,180,0.0,0.0,70,0.00,,---,0.09,VWS V13.01,2013-06-17 19:38:00,
2013-06-17 15:39:00,77.9,67.3,29.14,South,180,0.0,0.0,70,0.00,,---,0.09,VWS V13.01,2013-06-17 19:39:00,
2013-06-17 15:40:00,77.9,67.3,29.14,South,180,0.0,0.0,70,0.00,,---,0.09,VWS V13.01,2013-06-17 19:40:00,
2013-06-17 15:42:00,77.9,67.3,29.14,West,270,0.0,0.0,70,0.00,,---,0.09,VWS V13.01,2013-06-17 19:42:00,
2013-06-17 15:43:00,77.9,67.3,29.14,WSW,248,0.0,0.0,70,0.00,,---,0.09,VWS V13.01,2013-06-17 19:43:00,
2013-06-17 15:44:00,77.9,67.3,29.14,SSW,202,0.0,0.0,70,0.00,,---,0.09,VWS V13.01,2013-06-17 19:44:00,
2013-06-17 15:46:00,77.9,67.3,29.14,SSW,202,0.0,0.0,70,0.00,,---,0.09,VWS V13.01,2013-06-17 19:46:00,
2013-06-17 15:47:00,77.9,67.3,29.14,SSW,202,0.0,0.0,70,0.00,,---,0.09,VWS V13.01,2013-06-17 19:47:00,
2013-06-17 15:49:00,77.9,67.3,29.14,SSW,202,0.0,0.0,70,0.00,,---,0.09,VWS V13.01,2013-06-17 19:49:00,
2013-06-17 15:52:00,78.6,66.8,29.14,South,180,0.0,0.0,67,0.00,,---,0.09,VWS V13.01,2013-06-17 19:52:00,
2013-06-17 15:53:00,78.6,66.8,29.14,South,180,0.0,0.0,67,0.00,,---,0.09,VWS V13.01,2013-06-17 19:53:00,
2013-06-17 15:54:00,78.6,66.8,29.14,SSW,202,0.0,0.0,67,0.00,,---,0.09,VWS V13.01,2013-06-17 19:54:00,
2013-06-17 15:56:00,78.4,67.4,29.14,SE,135,0.0,0.0,69,0.00,,---,0.09,VWS V13.01,2013-06-17 19:56:00,
2013-06-17 15:58:00,78.4,67.4,29.14,South,180,0.0,0.0,69,0.00,,---,0.09,VWS V13.01,2013-06-17 19:58:00,
2013-06-17 16:00:00,78.4,67.4,29.14,West,270,0.0,0.0,69,0.00,,---,0.09,VWS V13.01,2013-06-17 20:00:00,
2013-06-17 16:03:00,78.4,67.4,29.14,SE,135,0.0,0.0,69,0.00,,---,0.09,VWS V13.01,2013-06-17 20:03:00,
2013-06-17 16:05:00,78.4,67.4,29.14,South,180,0.0,0.0,69,0.00,,---,0.09,VWS V13.01,2013-06-17 20:05:00,
2013-06-17 16:07:00,78.4,67.4,29.14,West,270,2.0,2.0,69,0.00,,---,0.09,VWS V13.01,2013-06-17 20:07:00,
2013-06-17 16:08:00,78.4,67.4,29.14,WSW,248,2.9,2.9,69,0.00,,---,0.09,VWS V13.01,2013-06-17 20:08:00,
2013-06-17 16:10:00,79.0,66.7,29.14,WSW,248,1.1,1.1,66,0.00,,---,0.09,VWS V13.01,2013-06-17 20:10:00,
2013-06-17 16:12:00,79.0,66.7,29.14,West,270,0.0,0.0,66,0.00,,---,0.09,VWS V13.01,2013-06-17 20:12:00,
2013-06-17 16:13:00,79.0,66.7,29.12,South,180,0.0,0.0,66,0.00,,---,0.09,VWS V13.01,2013-06-17 20:13:00,
2013-06-17 16:16:00,79.0,66.7,29.12,South,180,0.0,0.0,66,0.00,,---,0.09,VWS V13.01,2013-06-17 20:16:00,
2013-06-17 16:17:00,79.0,66.7,29.12,West,270,0.0,0.0,66,0.00,,---,0.09,VWS V13.01,2013-06-17 20:17:00,
2013-06-17 16:18:00,79.0,66.7,29.12,WSW,248,1.1,1.1,66,0.00,,---,0.09,VWS V13.01,2013-06-17 20:18:00,
2013-06-17 16:19:00,79.0,66.7,29.12,ESE,112,0.0,1.1,66,0.00,,---,0.09,VWS V13.01,2013-06-17 20:19:00,
2013-06-17 16:21:00,79.0,66.2,29.12,WSW,248,0.0,0.0,65,0.00,,---,0.09,VWS V13.01,2013-06-17 20:21:00,
2013-06-17 16:22:00,79.0,66.2,29.12,West,270,2.7,2.7,65,0.00,,---,0.09,VWS V13.01,2013-06-17 20:22:00,
2013-06-17 16:23:00,79.0,66.2,29.12,WNW,292,2.0,2.7,65,0.00,,---,0.09,VWS V13.01,2013-06-17 20:23:00,
2013-06-17 16:24:00,79.0,66.2,29.12,WNW,292,2.0,2.0,65,0.00,,---,0.09,VWS V13.01,2013-06-17 20:24:00,
2013-06-17 16:25:00,79.0,66.2,29.12,West,270,1.1,2.0,65,0.00,,---,0.09,VWS V13.01,2013-06-17 20:25:00,
2013-06-17 16:27:00,79.0,66.2,29.12,SW,225,0.0,0.0,65,0.00,,---,0.09,VWS V13.01,2013-06-17 20:27:00,
2013-06-17 16:28:00,79.0,66.2,29.12,SSW,202,0.0,0.0,65,0.00,,---,0.09,VWS V13.01,2013-06-17 20:28:00,
2013-06-17 16:29:00,79.0,66.2,29.12,SSE,158,1.3,1.3,65,0.00,,---,0.09,VWS V13.01,2013-06-17 20:29:00,
2013-06-17 16:31:00,79.0,66.2,29.12,SE,135,1.3,1.3,65,0.00,,---,0.09,VWS V13.01,2013-06-17 20:31:00,
2013-06-17 16:33:00,79.0,66.2,29.12,WSW,248,0.0,0.0,65,0.00,,---,0.09,VWS V13.01,2013-06-17 20:33:00,
2013-06-17 16:34:00,79.0,66.2,29.12,SSW,202,0.0,0.0,65,0.00,,---,0.09,VWS V13.01,2013-06-17 20:34:00,
2013-06-17 16:35:00,79.0,66.2,29.12,NW,315,1.1,1.1,65,0.00,,---,0.09,VWS V13.01,2013-06-17 20:35:00,
2013-06-17 16:36:00,79.0,66.2,29.12,South,180,1.3,1.3,65,0.00,,---,0.09,VWS V13.01,2013-06-17 20:36:00,
2013-06-17 16:38:00,79.0,66.2,29.12,West,270,0.9,0.9,65,0.00,,---,0.09,VWS V13.01,2013-06-17 20:38:00,
2013-06-17 16:40:00,79.0,64.9,29.12,West,270,0.0,0.9,62,0.00,,---,0.09,VWS V13.01,2013-06-17 20:40:00,
2013-06-17 16:41:00,79.0,64.9,29.12,SSW,202,1.3,1.3,62,0.00,,---,0.09,VWS V13.01,2013-06-17 20:41:00,
2013-06-17 16:42:00,79.0,64.9,29.12,SW,225,1.1,1.3,62,0.00,,---,0.09,VWS V13.01,2013-06-17 20:42:00,
2013-06-17 16:44:00,79.0,64.9,29.12,SSW,202,1.1,1.1,62,0.00,,---,0.09,VWS V13.01,2013-06-17 20:44:00,
2013-06-17 16:46:00,79.0,64.9,29.12,SW,225,0.9,0.9,62,0.00,,---,0.09,VWS V13.01,2013-06-17 20:46:00,
2013-06-17 16:47:00,79.0,64.9,29.12,NW,315,0.0,0.9,62,0.00,,---,0.09,VWS V13.01,2013-06-17 20:47:00,
2013-06-17 16:48:00,79.0,64.9,29.12,WSW,248,1.3,1.3,62,0.00,,---,0.09,VWS V13.01,2013-06-17 20:48:00,
2013-06-17 16:49:00,78.8,64.7,29.12,SSW,202,0.0,1.3,62,0.00,,---,0.09,VWS V13.01,2013-06-17 20:49:00,
2013-06-17 16:52:00,78.8,64.7,29.12,NNE,22,0.0,0.0,62,0.00,,---,0.09,VWS V13.01,2013-06-17 20:52:00,
2013-06-17 16:53:00,78.8,64.7,29.12,NNE,22,0.0,0.0,62,0.00,,---,0.09,VWS V13.01,2013-06-17 20:53:00,
2013-06-17 16:54:00,78.8,64.7,29.12,NNE,22,1.6,1.6,62,0.00,,---,0.09,VWS V13.01,2013-06-17 20:54:00,
2013-06-17 16:57:00,78.8,64.7,29.12,NNE,22,0.0,0.0,62,0.00,,---,0.09,VWS V13.01,2013-06-17 20:57:00,
2013-06-17 16:58:00,78.8,64.7,29.12,NNE,22,0.0,0.0,62,0.00,,---,0.09,VWS V13.01,2013-06-17 20:58:00,
2013-06-17 16:59:00,78.8,64.7,29.12,NNE,22,0.0,0.0,62,0.00,,---,0.09,VWS V13.01,2013-06-17 20:59:00,
2013-06-17 17:01:00,78.8,64.7,29.12,NNE,22,0.0,0.0,62,0.00,,---,0.09,VWS V13.01,2013-06-17 21:01:00,
2013-06-17 17:03:00,78.8,64.7,29.12,NNE,22,0.0,0.0,62,0.00,,---,0.09,VWS V13.01,2013-06-17 21:03:00,
2013-06-17 17:04:00,78.8,64.7,29.12,NNE,22,0.0,0.0,62,0.00,,---,0.09,VWS V13.01,2013-06-17 21:04:00,
2013-06-17 17:06:00,78.8,65.6,29.12,NNE,22,0.0,0.0,64,0.00,,---,0.09,VWS V13.01,2013-06-17 21:06:00,
2013-06-17 17:07:00,78.8,65.6,29.12,NNE,22,0.0,0.0,64,0.00,,---,0.09,VWS V13.01,2013-06-17 21:07:00,
2013-06-17 17:08:00,78.8,65.6,29.12,NNE,22,0.0,0.0,64,0.00,,---,0.09,VWS V13.01,2013-06-17 21:08:00,
2013-06-17 17:09:00,78.8,65.6,29.12,NNE,22,0.0,0.0,64,0.00,,---,0.09,VWS V13.01,2013-06-17 21:09:00,
2013-06-17 17:12:00,78.8,65.6,29.12,NNE,22,0.0,0.0,64,0.00,,---,0.09,VWS V13.01,2013-06-17 21:12:00,
2013-06-17 17:13:00,78.8,65.2,29.12,NNE,22,0.0,0.0,63,0.00,,---,0.09,VWS V13.01,2013-06-17 21:13:00,
2013-06-17 17:14:00,78.8,65.2,29.12,NNE,22,0.0,0.0,63,0.00,,---,0.09,VWS V13.01,2013-06-17 21:14:00,
2013-06-17 17:16:00,78.8,65.2,29.12,NNE,22,0.0,0.0,63,0.00,,---,0.09,VWS V13.01,2013-06-17 21:16:00,
2013-06-17 17:17:00,78.8,65.2,29.12,NNE,22,0.0,0.0,63,0.00,,---,0.09,VWS V13.01,2013-06-17 21:17:00,
2013-06-17 17:18:00,78.8,65.2,29.12,NNE,22,0.0,0.0,63,0.00,,---,0.09,VWS V13.01,2013-06-17 21:18:00,
2013-06-17 17:19:00,78.8,65.2,29.12,NNE,22,0.0,0.0,63,0.00,,---,0.09,VWS V13.01,2013-06-17 21:19:00,
2013-06-17 17:22:00,78.8,65.2,29.14,NNE,22,0.0,0.0,63,0.00,,---,0.09,VWS V13.01,2013-06-17 21:22:00,
2013-06-17 17:23:00,78.8,65.2,29.14,NNE,22,0.0,0.0,63,0.00,,---,0.09,VWS V13.01,2013-06-17 21:23:00,
2013-06-17 17:24:00,78.8,65.2,29.14,NNE,22,0.0,0.0,63,0.00,,---,0.09,VWS V13.01,2013-06-17 21:24:00,
2013-06-17 17:26:00,79.0,65.3,29.14,NNE,22,0.0,0.0,63,0.00,,---,0.09,VWS V13.01,2013-06-17 21:26:00,
2013-06-17 17:28:00,79.0,65.3,29.14,NNE,22,1.3,1.3,63,0.00,,---,0.09,VWS V13.01,2013-06-17 21:28:00,
2013-06-17 17:29:00,79.0,65.3,29.14,NNE,22,0.0,1.3,63,0.00,,---,0.09,VWS V13.01,2013-06-17 21:29:00,
2013-06-17 17:30:00,78.8,65.2,29.14,NNE,22,0.0,0.0,63,0.00,,---,0.09,VWS V13.01,2013-06-17 21:30:00,
2013-06-17 17:32:00,78.8,65.6,29.14,NNE,22,0.0,0.0,64,0.00,,---,0.09,VWS V13.01,2013-06-17 21:32:00,
2013-06-17 17:35:00,78.8,65.6,29.14,NNE,22,0.0,0.0,64,0.00,,---,0.09,VWS V13.01,2013-06-17 21:35:00,
2013-06-17 17:37:00,78.8,66.1,29.14,NNE,22,0.0,0.0,65,0.00,,---,0.09,VWS V13.01,2013-06-17 21:37:00,
2013-06-17 17:40:00,78.8,65.6,29.12,NNE,22,0.0,0.0,64,0.00,,---,0.09,VWS V13.01,2013-06-17 21:40:00,
2013-06-17 17:43:00,78.6,65.9,29.12,NNE,22,0.0,0.0,65,0.00,,---,0.09,VWS V13.01,2013-06-17 21:43:00,
2013-06-17 17:44:00,78.6,65.9,29.12,NNE,22,0.0,0.0,65,0.00,,---,0.09,VWS V13.01,2013-06-17 21:44:00,
2013-06-17 17:45:00,78.6,65.9,29.12,NNE,22,0.0,0.0,65,0.00,,---,0.09,VWS V13.01,2013-06-17 21:45:00,
2013-06-17 17:47:00,78.6,65.9,29.12,NNE,22,0.0,0.0,65,0.00,,---,0.09,VWS V13.01,2013-06-17 21:47:00,
2013-06-17 17:48:00,78.6,65.9,29.12,NNE,22,0.0,0.0,65,0.00,,---,0.09,VWS V13.01,2013-06-17 21:48:00,
2013-06-17 17:49:00,78.6,65.9,29.12,NNE,22,0.0,0.0,65,0.00,,---,0.09,VWS V13.01,2013-06-17 21:49:00,
2013-06-17 17:50:00,78.4,65.3,29.12,NNE,22,1.1,1.1,64,0.00,,---,0.09,VWS V13.01,2013-06-17 21:50:00,
2013-06-17 17:52:00,78.4,65.3,29.14,NNE,22,0.0,0.0,64,0.00,,---,0.09,VWS V13.01,2013-06-17 21:52:00,
2013-06-17 17:53:00,78.4,65.3,29.14,NNE,22,0.0,0.0,64,0.00,,---,0.09,VWS V13.01,2013-06-17 21:53:00,
2013-06-17 17:55:00,78.4,65.3,29.14,NNE,22,0.0,0.0,64,0.00,,---,0.09,VWS V13.01,2013-06-17 21:55:00,
2013-06-17 17:56:00,77.9,66.1,29.14,NNE,22,0.0,0.0,67,0.00,,---,0.09,VWS V13.01,2013-06-17 21:56:00,
2013-06-17 17:57:00,77.9,66.1,29.14,NNE,22,0.0,0.0,67,0.00,,---,0.09,VWS V13.01,2013-06-17 21:57:00,
2013-06-17 17:59:00,77.7,66.3,29.14,NNE,22,0.0,0.0,68,0.00,,---,0.09,VWS V13.01,2013-06-17 21:59:00,
2013-06-17 18:01:00,77.7,66.3,29.14,NNE,22,0.0,0.0,68,0.00,,---,0.09,VWS V13.01,2013-06-17 22:01:00,
2013-06-17 18:02:00,77.5,65.7,29.14,NNE,22,0.0,0.0,67,0.00,,---,0.09,VWS V13.01,2013-06-17 22:02:00,
2013-06-17 18:03:00,77.5,65.7,29.14,NNE,22,0.0,0.0,67,0.00,,---,0.09,VWS V13.01,2013-06-17 22:03:00,
2013-06-17 18:04:00,77.5,65.7,29.14,NNE,22,0.0,0.0,67,0.00,,---,0.09,VWS V13.01,2013-06-17 22:04:00,
2013-06-17 18:07:00,77.5,65.7,29.14,NNE,22,0.0,0.0,67,0.00,,---,0.09,VWS V13.01,2013-06-17 22:07:00,
2013-06-17 18:09:00,77.5,65.7,29.14,NNE,22,0.0,0.0,67,0.00,,---,0.09,VWS V13.01,2013-06-17 22:09:00,
2013-06-17 18:11:00,77.5,65.7,29.14,NNE,22,0.0,0.0,67,0.00,,---,0.09,VWS V13.01,2013-06-17 22:11:00,
2013-06-17 18:12:00,77.5,65.7,29.14,NW,315,2.0,2.0,67,0.00,,---,0.09,VWS V13.01,2013-06-17 22:12:00,
2013-06-17 18:15:00,77.5,65.7,29.14,NNW,338,2.2,2.2,67,0.00,,---,0.09,VWS V13.01,2013-06-17 22:15:00,
2013-06-17 18:16:00,77.5,65.7,29.14,West,270,1.3,2.2,67,0.00,,---,0.09,VWS V13.01,2013-06-17 22:16:00,
2013-06-17 18:19:00,77.5,65.7,29.14,WSW,248,0.9,2.0,67,0.00,,---,0.09,VWS V13.01,2013-06-17 22:19:00,
2013-06-17 18:21:00,77.5,65.7,29.14,SW,225,0.0,0.0,67,0.00,,---,0.09,VWS V13.01,2013-06-17 22:21:00,
2013-06-17 18:22:00,77.5,65.7,29.14,SW,225,0.0,0.0,67,0.00,,---,0.09,VWS V13.01,2013-06-17 22:22:00,
2013-06-17 18:24:00,77.5,65.7,29.14,SE,135,0.0,0.0,67,0.00,,---,0.09,VWS V13.01,2013-06-17 22:24:00,
2013-06-17 18:25:00,77.5,65.7,29.14,SSW,202,0.0,2.2,67,0.00,,---,0.09,VWS V13.01,2013-06-17 22:25:00,
2013-06-17 18:26:00,75.0,60.2,29.14,South,180,0.0,0.0,60,0.00,,---,0.09,VWS V13.01,2013-06-17 22:26:00,
2013-06-17 18:27:00,74.8,59.6,29.14,WNW,292,0.0,0.0,59,0.00,,---,0.09,VWS V13.01,2013-06-17 22:27:00,
2013-06-17 18:28:00,74.8,59.6,29.14,WNW,292,0.0,0.0,59,0.00,,---,0.09,VWS V13.01,2013-06-17 22:28:00,
2013-06-17 18:31:00,74.7,59.9,29.14,ENE,68,0.0,1.6,60,0.00,,---,0.09,VWS V13.01,2013-06-17 22:31:00,
2013-06-17 18:33:00,74.7,59.9,29.14,East,90,0.9,1.6,60,0.00,,---,0.09,VWS V13.01,2013-06-17 22:33:00,
2013-06-17 18:36:00,74.1,57.9,29.14,NNE,22,0.0,0.0,57,0.00,,---,0.09,VWS V13.01,2013-06-17 22:36:00,
2013-06-17 18:38:00,74.1,57.9,29.14,NNE,22,0.0,0.0,57,0.00,,---,0.09,VWS V13.01,2013-06-17 22:38:00,
2013-06-17 18:39:00,73.8,57.6,29.14,NNE,22,1.1,1.1,57,0.00,,---,0.09,VWS V13.01,2013-06-17 22:39:00,
2013-06-17 18:40:00,73.8,57.6,29.14,NNE,22,1.1,1.1,57,0.00,,---,0.09,VWS V13.01,2013-06-17 22:40:00,
2013-06-17 18:43:00,73.8,57.6,29.14,NNE,22,0.0,0.0,57,0.00,,---,0.09,VWS V13.01,2013-06-17 22:43:00,
2013-06-17 18:44:00,73.8,57.6,29.14,NNE,22,0.0,0.0,57,0.00,,---,0.09,VWS V13.01,2013-06-17 22:44:00,
2013-06-17 18:45:00,73.8,57.6,29.14,NNE,22,0.0,0.0,57,0.00,,---,0.09,VWS V13.01,2013-06-17 22:45:00,
2013-06-17 18:46:00,73.8,57.6,29.14,NNE,22,0.0,0.0,57,0.00,,---,0.09,VWS V13.01,2013-06-17 22:46:00,
2013-06-17 18:49:00,73.2,59.0,29.14,NNE,22,0.0,0.0,61,0.00,,---,0.09,VWS V13.01,2013-06-17 22:49:00,
2013-06-17 18:50:00,73.2,59.0,29.14,NNE,22,0.0,0.0,61,0.00,,---,0.09,VWS V13.01,2013-06-17 22:50:00,
2013-06-17 18:51:00,73.2,59.0,29.14,NNE,22,0.0,0.0,61,0.00,,---,0.09,VWS V13.01,2013-06-17 22:51:00,
2013-06-17 18:53:00,73.2,59.0,29.14,NNE,22,0.0,0.0,61,0.00,,---,0.09,VWS V13.01,2013-06-17 22:53:00,
2013-06-17 18:55:00,73.2,59.0,29.14,NNE,22,0.0,0.0,61,0.00,,---,0.09,VWS V13.01,2013-06-17 22:55:00,
2013-06-17 18:56:00,73.2,59.0,29.14,NNE,22,0.0,0.0,61,0.00,,---,0.09,VWS V13.01,2013-06-17 22:56:00,
2013-06-17 18:57:00,73.2,59.0,29.14,NNE,22,0.0,0.0,61,0.00,,---,0.09,VWS V13.01,2013-06-17 22:57:00,
2013-06-17 18:58:00,73.2,59.0,29.14,NNE,22,0.0,0.0,61,0.00,,---,0.09,VWS V13.01,2013-06-17 22:58:00,
2013-06-17 19:01:00,72.5,59.6,29.14,NNE,22,0.0,0.0,64,0.00,,---,0.09,VWS V13.01,2013-06-17 23:01:00,
2013-06-17 19:02:00,72.5,59.6,29.14,NNE,22,0.0,0.0,64,0.00,,---,0.09,VWS V13.01,2013-06-17 23:02:00,
2013-06-17 19:03:00,72.5,59.6,29.14,NNE,22,0.0,0.0,64,0.00,,---,0.09,VWS V13.01,2013-06-17 23:03:00,
2013-06-17 19:04:00,72.5,59.6,29.14,NNE,22,0.0,0.0,64,0.00,,---,0.09,VWS V13.01,2013-06-17 23:04:00,
2013-06-17 19:07:00,72.3,59.0,29.14,NNE,22,0.0,0.0,63,0.00,,---,0.09,VWS V13.01,2013-06-17 23:07:00,
2013-06-17 19:08:00,72.3,59.0,29.14,NNE,22,0.0,0.0,63,0.00,,---,0.09,VWS V13.01,2013-06-17 23:08:00,
2013-06-17 19:10:00,72.3,59.0,29.14,NNE,22,0.0,0.0,63,0.00,,---,0.09,VWS V13.01,2013-06-17 23:10:00,
2013-06-17 19:11:00,72.3,59.0,29.14,NNE,22,0.0,0.0,63,0.00,,---,0.09,VWS V13.01,2013-06-17 23:11:00,
2013-06-17 19:13:00,72.3,59.0,29.14,NNE,22,0.0,0.0,63,0.00,,---,0.09,VWS V13.01,2013-06-17 23:13:00,
2013-06-17 19:14:00,72.3,59.0,29.14,NNE,22,0.0,0.0,63,0.00,,---,0.09,VWS V13.01,2013-06-17 23:14:00,
2013-06-17 19:15:00,72.3,59.0,29.14,NNE,22,0.0,0.0,63,0.00,,---,0.09,VWS V13.01,2013-06-17 23:15:00,
2013-06-17 19:16:00,72.3,59.0,29.14,NNE,22,0.0,0.0,63,0.00,,---,0.09,VWS V13.01,2013-06-17 23:16:00,
2013-06-17 19:18:00,71.8,60.2,29.14,NNE,22,0.0,0.0,67,0.00,,---,0.09,VWS V13.01,2013-06-17 23:18:00,
2013-06-17 19:20:00,71.8,60.2,29.14,NNE,22,0.0,0.0,67,0.00,,---,0.09,VWS V13.01,2013-06-17 23:20:00,
2013-06-17 19:21:00,71.8,60.2,29.14,NNE,22,0.0,0.0,67,0.00,,---,0.09,VWS V13.01,2013-06-17 23:21:00,
2013-06-17 19:22:00,71.4,60.3,29.14,NNE,22,0.0,0.0,68,0.00,,---,0.09,VWS V13.01,2013-06-17 23:22:00,
2013-06-17 19:23:00,71.4,60.3,29.14,NNE,22,0.0,0.0,68,0.00,,---,0.09,VWS V13.01,2013-06-17 23:23:00,
2013-06-17 19:26:00,71.4,60.3,29.14,NNE,22,0.0,0.0,68,0.00,,---,0.09,VWS V13.01,2013-06-17 23:26:00,
2013-06-17 19:27:00,71.4,60.3,29.14,NNE,22,0.0,0.0,68,0.00,,---,0.09,VWS V13.01,2013-06-17 23:27:00,
2013-06-17 19:28:00,71.4,60.3,29.14,NNE,22,0.0,0.0,68,0.00,,---,0.09,VWS V13.01,2013-06-17 23:28:00,
2013-06-17 19:29:00,71.4,60.3,29.14,NNE,22,0.0,0.0,68,0.00,,---,0.09,VWS V13.01,2013-06-17 23:29:00,
2013-06-17 19:31:00,71.1,60.8,29.14,NNE,22,0.0,0.0,70,0.00,,---,0.09,VWS V13.01,2013-06-17 23:31:00,
2013-06-17 19:32:00,71.1,60.8,29.14,NNE,22,0.0,0.0,70,0.00,,---,0.09,VWS V13.01,2013-06-17 23:32:00,
2013-06-17 19:33:00,71.1,60.8,29.14,NNE,22,0.0,0.0,70,0.00,,---,0.09,VWS V13.01,2013-06-17 23:33:00,
2013-06-17 19:34:00,71.1,60.8,29.14,NNE,22,0.0,0.0,70,0.00,,---,0.09,VWS V13.01,2013-06-17 23:34:00,
2013-06-17 19:37:00,71.1,60.8,29.17,NNE,22,0.0,0.0,70,0.00,,---,0.09,VWS V13.01,2013-06-17 23:37:00,
2013-06-17 19:38:00,71.1,60.8,29.17,NNE,22,0.0,0.0,70,0.00,,---,0.09,VWS V13.01,2013-06-17 23:38:00,
2013-06-17 19:39:00,71.1,60.8,29.17,NNE,22,0.0,0.0,70,0.00,,---,0.09,VWS V13.01,2013-06-17 23:39:00,
2013-06-17 19:43:00,70.5,60.3,29.17,NNE,22,0.0,0.0,70,0.00,,---,0.09,VWS V13.01,2013-06-17 23:43:00,
2013-06-17 19:44:00,70.5,60.3,29.17,SE,135,0.0,0.0,70,0.00,,---,0.09,VWS V13.01,2013-06-17 23:44:00,
2013-06-17 19:45:00,70.5,60.7,29.17,SE,135,0.0,0.0,71,0.00,,---,0.09,VWS V13.01,2013-06-17 23:45:00,
2013-06-17 19:47:00,70.5,60.7,29.17,SE,135,0.0,0.0,71,0.00,,---,0.09,VWS V13.01,2013-06-17 23:47:00,
2013-06-17 19:49:00,70.5,60.7,29.17,SW,225,0.0,0.0,71,0.00,,---,0.09,VWS V13.01,2013-06-17 23:49:00,
2013-06-17 19:50:00,70.5,60.7,29.17,SW,225,0.0,0.0,71,0.00,,---,0.09,VWS V13.01,2013-06-17 23:50:00,
2013-06-17 19:51:00,70.5,60.7,29.17,SW,225,0.0,0.0,71,0.00,,---,0.09,VWS V13.01,2013-06-17 23:51:00,
2013-06-17 19:54:00,70.0,60.2,29.17,SW,225,0.0,0.0,71,0.00,,---,0.09,VWS V13.01,2013-06-17 23:54:00,
2013-06-17 19:55:00,70.0,60.2,29.17,SW,225,0.0,0.0,71,0.00,,---,0.09,VWS V13.01,2013-06-17 23:55:00,
2013-06-17 19:56:00,70.0,60.2,29.17,SW,225,0.0,0.0,71,0.00,,---,0.09,VWS V13.01,2013-06-17 23:56:00,
2013-06-17 19:59:00,70.0,60.2,29.17,SW,225,0.0,0.0,71,0.00,,---,0.09,VWS V13.01,2013-06-17 23:59:00,
2013-06-17 20:00:00,70.0,60.2,29.17,SW,225,0.0,0.0,71,0.00,,---,0.09,VWS V13.01,2013-06-18 00:00:00,
2013-06-17 20:01:00,70.0,60.2,29.17,SW,225,0.0,0.0,71,0.00,,---,0.09,VWS V13.01,2013-06-18 00:01:00,
2013-06-17 20:03:00,70.0,60.2,29.17,SW,225,0.0,0.0,71,0.00,,---,0.09,VWS V13.01,2013-06-18 00:03:00,
2013-06-17 20:05:00,70.0,60.2,29.17,SW,225,0.0,0.0,71,0.00,,---,0.09,VWS V13.01,2013-06-18 00:05:00,
2013-06-17 20:06:00,70.0,60.2,29.17,SW,225,0.0,0.0,71,0.00,,---,0.09,VWS V13.01,2013-06-18 00:06:00,
2013-06-17 20:07:00,69.6,60.6,29.17,SW,225,0.0,0.0,73,0.00,,---,0.09,VWS V13.01,2013-06-18 00:07:00,
2013-06-17 20:08:00,69.6,60.6,29.17,SW,225,0.0,0.0,73,0.00,,---,0.09,VWS V13.01,2013-06-18 00:08:00,
2013-06-17 20:11:00,69.6,60.6,29.17,SW,225,0.0,0.0,73,0.00,,---,0.09,VWS V13.01,2013-06-18 00:11:00,
2013-06-17 20:12:00,69.6,60.6,29.17,SW,225,0.0,0.0,73,0.00,,---,0.09,VWS V13.01,2013-06-18 00:12:00,
2013-06-17 20:13:00,69.6,60.6,29.17,SW,225,0.0,0.0,73,0.00,,---,0.09,VWS V13.01,2013-06-18 00:13:00,
2013-06-17 20:17:00,69.1,60.5,29.17,SW,225,0.0,0.0,74,0.00,,---,0.09,VWS V13.01,2013-06-18 00:17:00,
2013-06-17 20:18:00,69.1,60.5,29.17,SW,225,0.0,0.0,74,0.00,,---,0.09,VWS V13.01,2013-06-18 00:18:00,
2013-06-17 20:20:00,69.1,60.8,29.17,SW,225,0.0,0.0,75,0.00,,---,0.09,VWS V13.01,2013-06-18 00:20:00,
2013-06-17 20:22:00,69.1,60.8,29.17,SW,225,0.0,0.0,75,0.00,,---,0.09,VWS V13.01,2013-06-18 00:22:00,
2013-06-17 20:23:00,69.1,60.8,29.17,SW,225,0.0,0.0,75,0.00,,---,0.09,VWS V13.01,2013-06-18 00:23:00,
2013-06-17 20:24:00,69.1,60.8,29.17,SW,225,0.0,0.0,75,0.00,,---,0.09,VWS V13.01,2013-06-18 00:24:00,
2013-06-17 20:25:00,69.1,60.8,29.17,SW,225,0.0,0.0,75,0.00,,---,0.09,VWS V13.01,2013-06-18 00:25:00,
2013-06-17 20:27:00,69.1,60.8,29.17,SW,225,0.0,0.0,75,0.00,,---,0.09,VWS V13.01,2013-06-18 00:27:00,
2013-06-17 20:30:00,69.1,60.8,29.17,SSW,202,0.0,0.0,75,0.00,,---,0.09,VWS V13.01,2013-06-18 00:30:00,
2013-06-17 20:32:00,68.7,60.9,29.17,SSW,202,0.0,0.0,76,0.00,,---,0.09,VWS V13.01,2013-06-18 00:32:00,
2013-06-17 20:34:00,68.7,60.9,29.17,SSW,202,0.0,0.0,76,0.00,,---,0.09,VWS V13.01,2013-06-18 00:34:00,
2013-06-17 20:35:00,68.7,61.2,29.17,SSW,202,0.0,0.0,77,0.00,,---,0.09,VWS V13.01,2013-06-18 00:35:00,
2013-06-17 20:37:00,68.7,61.2,29.17,SSW,202,0.0,0.0,77,0.00,,---,0.09,VWS V13.01,2013-06-18 00:37:00,
2013-06-17 20:38:00,68.5,61.0,29.17,SSW,202,0.0,0.0,77,0.00,,---,0.09,VWS V13.01,2013-06-18 00:38:00,
2013-06-17 20:39:00,68.5,61.0,29.17,SSW,202,0.0,0.0,77,0.00,,---,0.09,VWS V13.01,2013-06-18 00:39:00,
2013-06-17 20:40:00,68.5,61.0,29.17,SSW,202,0.0,0.0,77,0.00,,---,0.09,VWS V13.01,2013-06-18 00:40:00,
2013-06-17 20:41:00,68.5,61.0,29.17,SSW,202,0.0,0.0,77,0.00,,---,0.09,VWS V13.01,2013-06-18 00:41:00,
2013-06-17 20:43:00,68.5,61.0,29.17,SSW,202,0.0,0.0,77,0.00,,---,0.09,VWS V13.01,2013-06-18 00:43:00,
2013-06-17 20:44:00,68.4,61.2,29.17,SSW,202,0.0,0.0,78,0.00,,---,0.09,VWS V13.01,2013-06-18 00:44:00,
2013-06-17 20:45:00,68.4,61.2,29.17,SSW,202,0.0,0.0,78,0.00,,---,0.09,VWS V13.01,2013-06-18 00:45:00,
2013-06-17 20:46:00,68.4,61.2,29.17,SSW,202,0.0,0.0,78,0.00,,---,0.09,VWS V13.01,2013-06-18 00:46:00,
2013-06-17 20:48:00,68.4,61.2,29.17,SSW,202,0.0,0.0,78,0.00,,---,0.09,VWS V13.01,2013-06-18 00:48:00,
2013-06-17 20:49:00,68.4,61.2,29.17,SSW,202,0.0,0.0,78,0.00,,---,0.09,VWS V13.01,2013-06-18 00:49:00,
2013-06-17 20:51:00,68.4,61.2,29.17,SSW,202,0.0,0.0,78,0.00,,---,0.09,VWS V13.01,2013-06-18 00:51:00,
2013-06-17 20:52:00,68.4,61.2,29.17,SSW,202,0.0,0.0,78,0.00,,---,0.09,VWS V13.01,2013-06-18 00:52:00,
2013-06-17 20:55:00,68.4,61.2,29.17,SSW,202,0.0,0.0,78,0.00,,---,0.09,VWS V13.01,2013-06-18 00:55:00,
2013-06-17 20:56:00,68.2,60.7,29.17,SSW,202,0.0,0.0,77,0.00,,---,0.09,VWS V13.01,2013-06-18 00:56:00,
2013-06-17 20:57:00,68.2,60.7,29.17,SSW,202,0.0,0.0,77,0.00,,---,0.09,VWS V13.01,2013-06-18 00:57:00,
2013-06-17 20:59:00,68.2,60.7,29.17,SSW,202,0.0,0.0,77,0.00,,---,0.09,VWS V13.01,2013-06-18 00:59:00,
2013-06-17 21:01:00,68.2,60.7,29.17,SSW,202,0.0,0.0,77,0.00,,---,0.09,VWS V13.01,2013-06-18 01:01:00,
2013-06-17 21:02:00,68.2,60.7,29.17,SSW,202,0.0,0.0,77,0.00,,---,0.09,VWS V13.01,2013-06-18 01:02:00,
2013-06-17 21:03:00,68.2,60.7,29.17,SSW,202,0.0,0.0,77,0.00,,---,0.09,VWS V13.01,2013-06-18 01:03:00,
2013-06-17 21:04:00,68.2,60.7,29.17,SSW,202,0.0,0.0,77,0.00,,---,0.09,VWS V13.01,2013-06-18 01:04:00,
2013-06-17 21:07:00,67.8,61.1,29.17,SSW,202,0.0,0.0,79,0.00,,---,0.09,VWS V13.01,2013-06-18 01:07:00,
2013-06-17 21:08:00,67.8,61.1,29.17,SSW,202,0.0,0.0,79,0.00,,---,0.09,VWS V13.01,2013-06-18 01:08:00,
2013-06-17 21:09:00,67.8,61.1,29.17,SSW,202,0.0,0.0,79,0.00,,---,0.09,VWS V13.01,2013-06-18 01:09:00,
2013-06-17 21:13:00,67.8,61.1,29.17,SSW,202,0.0,0.0,79,0.00,,---,0.09,VWS V13.01,2013-06-18 01:13:00,
2013-06-17 21:14:00,67.8,61.1,29.17,SSW,202,0.0,0.0,79,0.00,,---,0.09,VWS V13.01,2013-06-18 01:14:00,
2013-06-17 21:15:00,67.8,61.1,29.17,SSW,202,0.0,0.0,79,0.00,,---,0.09,VWS V13.01,2013-06-18 01:15:00,
2013-06-17 21:18:00,67.6,60.9,29.17,SSW,202,0.0,0.0,79,0.00,,---,0.09,VWS V13.01,2013-06-18 01:18:00,
2013-06-17 21:19:00,67.6,60.9,29.17,SSW,202,0.0,0.0,79,0.00,,---,0.09,VWS V13.01,2013-06-18 01:19:00,
2013-06-17 21:20:00,67.6,60.9,29.20,SSW,202,0.0,0.0,79,0.00,,---,0.09,VWS V13.01,2013-06-18 01:20:00,
2013-06-17 21:23:00,67.6,60.9,29.20,SSW,202,0.0,0.0,79,0.00,,---,0.09,VWS V13.01,2013-06-18 01:23:00,
2013-06-17 21:24:00,67.6,60.9,29.20,SSW,202,0.0,0.0,79,0.00,,---,0.09,VWS V13.01,2013-06-18 01:24:00,
2013-06-17 21:25:00,67.6,60.9,29.20,SSW,202,0.0,0.0,79,0.00,,---,0.09,VWS V13.01,2013-06-18 01:25:00,
2013-06-17 21:26:00,67.6,60.9,29.20,SSE,158,0.0,0.0,79,0.00,,---,0.09,VWS V13.01,2013-06-18 01:26:00,
2013-06-17 21:29:00,67.6,60.9,29.20,East,90,0.9,0.9,79,0.00,,---,0.09,VWS V13.01,2013-06-18 01:29:00,
2013-06-17 21:31:00,67.6,60.9,29.20,East,90,0.0,0.9,79,0.00,,---,0.09,VWS V13.01,2013-06-18 01:31:00,
2013-06-17 21:32:00,67.6,60.9,29.20,East,90,0.0,0.0,79,0.00,,---,0.09,VWS V13.01,2013-06-18 01:32:00,
2013-06-17 21:33:00,67.1,60.4,29.20,East,90,0.0,0.0,79,0.00,,---,0.09,VWS V13.01,2013-06-18 01:33:00,
2013-06-17 21:34:00,67.1,60.4,29.20,ESE,112,0.0,0.0,79,0.00,,---,0.09,VWS V13.01,2013-06-18 01:34:00,
2013-06-17 21:35:00,67.1,60.4,29.20,ESE,112,0.0,0.0,79,0.00,,---,0.09,VWS V13.01,2013-06-18 01:35:00,
2013-06-17 21:36:00,67.1,60.4,29.20,East,90,0.0,0.0,79,0.00,,---,0.09,VWS V13.01,2013-06-18 01:36:00,
2013-06-17 21:37:00,67.1,60.4,29.20,East,90,0.0,0.0,79,0.00,,---,0.09,VWS V13.01,2013-06-18 01:37:00,
2013-06-17 21:39:00,67.1,60.4,29.20,East,90,0.0,0.0,79,0.00,,---,0.09,VWS V13.01,2013-06-18 01:39:00,
2013-06-17 21:40:00,67.1,60.4,29.20,SW,225,0.0,0.0,79,0.00,,---,0.09,VWS V13.01,2013-06-18 01:40:00,
2013-06-17 21:42:00,66.9,60.6,29.20,SW,225,0.0,0.0,80,0.00,,---,0.09,VWS V13.01,2013-06-18 01:42:00,
2013-06-17 21:43:00,66.9,60.6,29.20,SSW,202,0.0,0.0,80,0.00,,---,0.09,VWS V13.01,2013-06-18 01:43:00,
2013-06-17 21:45:00,66.7,60.4,29.20,SSW,202,0.0,0.0,80,0.00,,---,0.09,VWS V13.01,2013-06-18 01:45:00,
2013-06-17 21:47:00,66.7,60.4,29.20,SSW,202,0.0,0.0,80,0.00,,---,0.09,VWS V13.01,2013-06-18 01:47:00,
2013-06-17 21:48:00,66.7,60.4,29.20,SW,225,0.0,0.0,80,0.00,,---,0.09,VWS V13.01,2013-06-18 01:48:00,
2013-06-17 21:49:00,66.7,60.4,29.20,SW,225,0.0,0.0,80,0.00,,---,0.09,VWS V13.01,2013-06-18 01:49:00,
2013-06-17 21:51:00,66.7,60.4,29.20,SW,225,0.0,0.0,80,0.00,,---,0.09,VWS V13.01,2013-06-18 01:51:00,
2013-06-17 21:54:00,66.7,60.4,29.20,SW,225,0.0,0.0,80,0.00,,---,0.09,VWS V13.01,2013-06-18 01:54:00,
2013-06-17 21:55:00,66.7,60.4,29.20,SW,225,0.0,0.0,80,0.00,,---,0.09,VWS V13.01,2013-06-18 01:55:00,
2013-06-17 21:56:00,66.7,60.4,29.20,SW,225,0.0,0.0,80,0.00,,---,0.09,VWS V13.01,2013-06-18 01:56:00,
2013-06-17 22:00:00,66.2,59.9,29.20,SW,225,0.0,0.0,80,0.00,,---,0.09,VWS V13.01,2013-06-18 02:00:00,
2013-06-17 22:01:00,66.2,59.9,29.20,SW,225,0.0,0.0,80,0.00,,---,0.09,VWS V13.01,2013-06-18 02:01:00,
2013-06-17 22:03:00,66.2,59.9,29.20,SW,225,0.0,0.0,80,0.00,,---,0.09,VWS V13.01,2013-06-18 02:03:00,
2013-06-17 22:06:00,66.0,60.0,29.20,SW,225,0.0,0.0,81,0.00,,---,0.09,VWS V13.01,2013-06-18 02:06:00,
2013-06-17 22:07:00,66.0,60.0,29.20,SW,225,0.0,0.0,81,0.00,,---,0.09,VWS V13.01,2013-06-18 02:07:00,
2013-06-17 22:09:00,66.0,60.0,29.20,SW,225,0.0,0.0,81,0.00,,---,0.09,VWS V13.01,2013-06-18 02:09:00,
2013-06-17 22:11:00,65.7,60.0,29.20,SW,225,0.0,0.0,82,0.00,,---,0.09,VWS V13.01,2013-06-18 02:11:00,
2013-06-17 22:14:00,65.7,60.0,29.20,SW,225,0.0,0.0,82,0.00,,---,0.09,VWS V13.01,2013-06-18 02:14:00,
2013-06-17 22:15:00,65.7,60.0,29.20,NW,315,0.0,0.0,82,0.00,,---,0.09,VWS V13.01,2013-06-18 02:15:00,
2013-06-17 22:16:00,65.7,60.0,29.20,NW,315,0.0,0.0,82,0.00,,---,0.09,VWS V13.01,2013-06-18 02:16:00,
2013-06-17 22:17:00,65.7,60.0,29.20,NW,315,0.0,0.0,82,0.00,,---,0.09,VWS V13.01,2013-06-18 02:17:00,
2013-06-17 22:18:00,65.7,60.0,29.20,NW,315,0.0,0.0,82,0.00,,---,0.09,VWS V13.01,2013-06-18 02:18:00,
2013-06-17 22:19:00,65.7,60.0,29.20,NW,315,0.0,0.0,82,0.00,,---,0.09,VWS V13.01,2013-06-18 02:19:00,
2013-06-17 22:22:00,65.1,59.5,29.20,NW,315,0.0,0.0,82,0.00,,---,0.09,VWS V13.01,2013-06-18 02:22:00,
2013-06-17 22:23:00,65.1,59.5,29.20,South,180,0.0,0.0,82,0.00,,---,0.09,VWS V13.01,2013-06-18 02:23:00,
2013-06-17 22:24:00,65.1,59.5,29.20,South,180,0.0,0.0,82,0.00,,---,0.09,VWS V13.01,2013-06-18 02:24:00,
2013-06-17 22:28:00,65.1,59.5,29.20,South,180,0.0,0.0,82,0.00,,---,0.09,VWS V13.01,2013-06-18 02:28:00,
2013-06-17 22:29:00,65.1,59.5,29.20,South,180,0.0,0.0,82,0.00,,---,0.09,VWS V13.01,2013-06-18 02:29:00,
2013-06-17 22:30:00,65.1,59.5,29.20,South,180,0.0,0.0,82,0.00,,---,0.09,VWS V13.01,2013-06-18 02:30:00,
2013-06-17 22:31:00,65.1,59.5,29.20,South,180,0.0,0.0,82,0.00,,---,0.09,VWS V13.01,2013-06-18 02:31:00,
2013-06-17 22:33:00,65.1,59.5,29.20,South,180,0.0,0.0,82,0.00,,---,0.09,VWS V13.01,2013-06-18 02:33:00,
2013-06-17 22:35:00,65.1,59.5,29.20,South,180,0.0,0.0,82,0.00,,---,0.09,VWS V13.01,2013-06-18 02:35:00,
2013-06-17 22:37:00,65.1,59.5,29.20,South,180,0.0,0.0,82,0.00,,---,0.09,VWS V13.01,2013-06-18 02:37:00,
2013-06-17 22:38:00,65.1,59.5,29.20,South,180,0.0,0.0,82,0.00,,---,0.09,VWS V13.01,2013-06-18 02:38:00,
2013-06-17 22:40:00,65.1,59.5,29.20,South,180,0.0,0.0,82,0.00,,---,0.09,VWS V13.01,2013-06-18 02:40:00,
2013-06-17 22:43:00,65.1,59.5,29.20,South,180,0.0,0.0,82,0.00,,---,0.09,VWS V13.01,2013-06-18 02:43:00,
2013-06-17 22:44:00,65.1,59.5,29.20,South,180,0.0,0.0,82,0.00,,---,0.09,VWS V13.01,2013-06-18 02:44:00,
2013-06-17 22:46:00,65.1,59.5,29.20,South,180,0.0,0.0,82,0.00,,---,0.09,VWS V13.01,2013-06-18 02:46:00,
2013-06-17 22:48:00,65.1,59.5,29.20,South,180,0.0,0.0,82,0.00,,---,0.09,VWS V13.01,2013-06-18 02:48:00,
2013-06-17 22:49:00,65.1,59.5,29.20,South,180,0.0,0.0,82,0.00,,---,0.09,VWS V13.01,2013-06-18 02:49:00,
2013-06-17 22:51:00,64.4,59.1,29.20,South,180,0.0,0.0,83,0.00,,---,0.09,VWS V13.01,2013-06-18 02:51:00,
2013-06-17 22:52:00,64.4,59.1,29.20,South,180,0.0,0.0,83,0.00,,---,0.09,VWS V13.01,2013-06-18 02:52:00,
2013-06-17 22:53:00,64.4,59.1,29.20,South,180,0.0,0.0,83,0.00,,---,0.09,VWS V13.01,2013-06-18 02:53:00,
2013-06-17 22:55:00,64.4,59.1,29.20,South,180,0.0,0.0,83,0.00,,---,0.09,VWS V13.01,2013-06-18 02:55:00,
2013-06-17 22:58:00,64.4,59.1,29.20,South,180,0.0,0.0,83,0.00,,---,0.09,VWS V13.01,2013-06-18 02:58:00,
2013-06-17 22:59:00,64.4,59.1,29.20,South,180,0.0,0.0,83,0.00,,---,0.09,VWS V13.01,2013-06-18 02:59:00,
2013-06-17 23:00:00,64.4,59.1,29.20,South,180,0.0,0.0,83,0.00,,---,0.09,VWS V13.01,2013-06-18 03:00:00,
2013-06-17 23:02:00,64.4,59.1,29.20,South,180,0.0,0.0,83,0.00,,---,0.09,VWS V13.01,2013-06-18 03:02:00,
2013-06-17 23:04:00,64.4,59.1,29.20,SSE,158,0.0,0.0,83,0.00,,---,0.09,VWS V13.01,2013-06-18 03:04:00,
2013-06-17 23:05:00,64.4,59.1,29.20,SSE,158,0.0,0.0,83,0.00,,---,0.09,VWS V13.01,2013-06-18 03:05:00,
2013-06-17 23:06:00,64.4,59.1,29.20,SSE,158,0.0,0.0,83,0.00,,---,0.09,VWS V13.01,2013-06-18 03:06:00,
2013-06-17 23:08:00,64.4,59.1,29.20,SSE,158,0.0,0.0,83,0.00,,---,0.09,VWS V13.01,2013-06-18 03:08:00,
2013-06-17 23:10:00,64.4,59.1,29.20,South,180,0.0,0.0,83,0.00,,---,0.09,VWS V13.01,2013-06-18 03:10:00,
2013-06-17 23:11:00,64.4,59.1,29.20,South,180,0.0,0.0,83,0.00,,---,0.09,VWS V13.01,2013-06-18 03:11:00,
2013-06-17 23:13:00,64.4,59.1,29.20,South,180,0.0,0.0,83,0.00,,---,0.09,VWS V13.01,2013-06-18 03:13:00,
2013-06-17 23:14:00,64.0,59.5,29.20,South,180,0.0,0.0,85,0.00,,---,0.09,VWS V13.01,2013-06-18 03:14:00,
2013-06-17 23:16:00,64.0,59.5,29.20,South,180,0.0,0.0,85,0.00,,---,0.09,VWS V13.01,2013-06-18 03:16:00,
2013-06-17 23:17:00,64.0,59.5,29.20,South,180,0.0,0.0,85,0.00,,---,0.09,VWS V13.01,2013-06-18 03:17:00,
2013-06-17 23:19:00,64.0,59.5,29.20,South,180,0.0,0.0,85,0.00,,---,0.09,VWS V13.01,2013-06-18 03:19:00,
2013-06-17 23:21:00,63.9,59.3,29.20,South,180,0.0,0.0,85,0.00,,---,0.09,VWS V13.01,2013-06-18 03:21:00,
2013-06-17 23:22:00,63.9,59.3,29.20,South,180,0.0,0.0,85,0.00,,---,0.09,VWS V13.01,2013-06-18 03:22:00,
2013-06-17 23:26:00,63.9,59.3,29.20,South,180,0.0,0.0,85,0.00,,---,0.09,VWS V13.01,2013-06-18 03:26:00,
2013-06-17 23:27:00,63.9,59.3,29.20,South,180,0.0,0.0,85,0.00,,---,0.09,VWS V13.01,2013-06-18 03:27:00,
2013-06-17 23:28:00,63.9,59.3,29.20,South,180,0.0,0.0,85,0.00,,---,0.09,VWS V13.01,2013-06-18 03:28:00,
2013-06-17 23:29:00,63.9,59.3,29.20,South,180,0.0,0.0,85,0.00,,---,0.09,VWS V13.01,2013-06-18 03:29:00,
2013-06-17 23:31:00,63.9,59.3,29.20,South,180,0.0,0.0,85,0.00,,---,0.09,VWS V13.01,2013-06-18 03:31:00,
2013-06-17 23:32:00,63.9,59.3,29.20,South,180,0.0,0.0,85,0.00,,---,0.09,VWS V13.01,2013-06-18 03:32:00,
2013-06-17 23:34:00,63.9,59.3,29.20,South,180,0.0,0.0,85,0.00,,---,0.09,VWS V13.01,2013-06-18 03:34:00,
2013-06-17 23:37:00,63.9,59.3,29.20,South,180,0.0,0.0,85,0.00,,---,0.09,VWS V13.01,2013-06-18 03:37:00,
2013-06-17 23:38:00,63.9,59.3,29.20,South,180,0.0,0.0,85,0.00,,---,0.09,VWS V13.01,2013-06-18 03:38:00,
2013-06-17 23:39:00,63.9,59.3,29.20,South,180,0.0,0.0,85,0.00,,---,0.09,VWS V13.01,2013-06-18 03:39:00,
2013-06-17 23:42:00,63.9,59.3,29.20,South,180,0.0,0.0,85,0.00,,---,0.09,VWS V13.01,2013-06-18 03:42:00,
2013-06-17 23:43:00,63.9,59.3,29.20,South,180,0.0,0.0,85,0.00,,---,0.09,VWS V13.01,2013-06-18 03:43:00,
2013-06-17 23:44:00,63.5,59.2,29.20,South,180,0.0,0.0,86,0.00,,---,0.09,VWS V13.01,2013-06-18 03:44:00,
2013-06-17 23:48:00,63.5,59.2,29.20,East,90,0.0,0.0,86,0.00,,---,0.09,VWS V13.01,2013-06-18 03:48:00,
2013-06-17 23:49:00,63.5,59.2,29.20,East,90,0.0,0.0,86,0.00,,---,0.09,VWS V13.01,2013-06-18 03:49:00,
2013-06-17 23:50:00,63.5,59.2,29.20,East,90,0.0,0.0,86,0.00,,---,0.09,VWS V13.01,2013-06-18 03:50:00,
2013-06-17 23:53:00,63.3,59.1,29.20,SW,225,0.0,0.0,86,0.00,,---,0.09,VWS V13.01,2013-06-18 03:53:00,
2013-06-17 23:54:00,63.3,59.1,29.20,SW,225,0.0,0.0,86,0.00,,---,0.09,VWS V13.01,2013-06-18 03:54:00,
2013-06-17 23:55:00,63.3,59.1,29.20,SW,225,0.0,0.0,86,0.00,,---,0.09,VWS V13.01,2013-06-18 03:55:00,
2013-06-17 23:56:00,63.3,59.1,29.20,SW,225,0.0,0.0,86,0.00,,---,0.09,VWS V13.01,2013-06-18 03:56:00,
2013-06-17 23:59:00,63.3,59.1,29.20,SSW,202,0.0,0.0,86,0.00,,---,0.09,VWS V13.01,2013-06-18 03:59:00,